Observation data for Junction on 03/24/2019      Previous  Date  Next       Current Mesonet Observations  Soil Data  Daily Summary Page  Observations in Plain Language
KJU1 240500Z 19004KT 18/16 A3005 RMK A01 T01780159  RH  088%=      5-min Rain = 0
KJU1 240501Z 20004KT 18/16 A3005 RMK A01 T01780158  RH  088%=      5-min Rain = 0
KJU1 240502Z 20005KT 18/16 A3005 RMK A01 T01770158  RH  089%=      5-min Rain = 0
KJU1 240503Z 20006KT 18/16 A3005 RMK A01 T01770159  RH  089%=      5-min Rain = 0
KJU1 240504Z 22007KT 18/16 A3005 RMK A01 T01770159  RH  089%=      5-min Rain = 0
KJU1 240505Z 19005KT 18/16 A3005 RMK A01 T01780159  RH  089%=      5-min Rain = 0
KJU1 240506Z 19005KT 18/16 A3005 RMK A01 T01780158  RH  088%=      5-min Rain = 0
KJU1 240507Z 20005KT 18/16 A3005 RMK A01 T01780159  RH  088%=      5-min Rain = 0
KJU1 240508Z 20005KT 18/16 A3005 RMK A01 T01780158  RH  088%=      5-min Rain = 0
KJU1 240509Z 20005KT 18/16 A3005 RMK A01 T01770158  RH  088%=      5-min Rain = 0
KJU1 240510Z 19004KT 18/16 A3005 RMK A01 T01770158  RH  089%=      5-min Rain = 0
KJU1 240511Z 19006KT 18/16 A3005 RMK A01 T01770158  RH  089%=      5-min Rain = 0
KJU1 240512Z 19006KT 18/16 A3005 RMK A01 T01770158  RH  089%=      5-min Rain = 0
KJU1 240513Z 18006KT 18/16 A3005 RMK A01 T01770158  RH  089%=      5-min Rain = 0
KJU1 240514Z 19005KT 18/16 A3005 RMK A01 T01770158  RH  089%=      5-min Rain = 0
KJU1 240515Z 18005KT 18/16 A3005 RMK A01 T01770157  RH  088%=      5-min Rain = 0
KJU1 240516Z 18006KT 18/16 A3005 RMK A01 T01760157  RH  089%=      5-min Rain = 0
KJU1 240517Z 19006KT 18/16 A3005 RMK A01 T01760158  RH  089%=      5-min Rain = 0
KJU1 240518Z 19006KT 18/16 A3005 RMK A01 T01760157  RH  089%=      5-min Rain = 0
KJU1 240519Z 19006KT 18/16 A3005 RMK A01 T01760158  RH  089%=      5-min Rain = 0
KJU1 240520Z 19006KT 18/16 A3005 RMK A01 T01750158  RH  089%=      5-min Rain = 0
KJU1 240521Z 19006KT 18/16 A3005 RMK A01 T01760157  RH  089%=      5-min Rain = 0
KJU1 240522Z 18006KT 18/16 A3005 RMK A01 T01760158  RH  089%=      5-min Rain = 0
KJU1 240523Z 19006KT 18/16 A3005 RMK A01 T01760157  RH  089%=      5-min Rain = 0
KJU1 240524Z 19006KT 18/16 A3005 RMK A01 T01750158  RH  089%=      5-min Rain = 0
KJU1 240525Z 20005KT 18/16 A3005 RMK A01 T01750158  RH  089%=      5-min Rain = 0
KJU1 240526Z 19005KT 18/16 A3005 RMK A01 T01760158  RH  089%=      5-min Rain = 0
KJU1 240527Z 19005KT 18/16 A3005 RMK A01 T01750157  RH  089%=      5-min Rain = 0
KJU1 240528Z 19004KT 18/16 A3005 RMK A01 T01750158  RH  089%=      5-min Rain = 0
KJU1 240529Z 20004KT 18/16 A3005 RMK A01 T01750157  RH  089%=      5-min Rain = 0
KJU1 240530Z 19005KT 18/16 A3005 RMK A01 T01750157  RH  089%=      5-min Rain = 0
KJU1 240531Z 20005KT 18/16 A3005 RMK A01 T01750157  RH  090%=      5-min Rain = 0
KJU1 240532Z 19004KT 18/16 A3005 RMK A01 T01750157  RH  089%=      5-min Rain = 0
KJU1 240533Z 19006KT 18/16 A3005 RMK A01 T01750157  RH  089%=      5-min Rain = 0
KJU1 240534Z 19005KT 17/16 A3005 RMK A01 T01740158  RH  090%=      5-min Rain = 0
KJU1 240535Z 20006KT 18/16 A3005 RMK A01 T01750158  RH  090%=      5-min Rain = 0
KJU1 240536Z 19007KT 18/16 A3005 RMK A01 T01750158  RH  090%=      5-min Rain = 0
KJU1 240537Z 19006KT 18/16 A3005 RMK A01 T01760159  RH  090%=      5-min Rain = 0
KJU1 240538Z 19005KT 18/16 A3005 RMK A01 T01770158  RH  089%=      5-min Rain = 0
KJU1 240539Z 19005KT 18/16 A3005 RMK A01 T01760157  RH  089%=      5-min Rain = 0
KJU1 240540Z 20005KT 18/16 A3005 RMK A01 T01760157  RH  089%=      5-min Rain = 0
KJU1 240541Z 19006KT 18/16 A3005 RMK A01 T01750157  RH  089%=      5-min Rain = 0
KJU1 240542Z 19004KT 18/16 A3005 RMK A01 T01750157  RH  089%=      5-min Rain = 0
KJU1 240543Z 19004KT 18/16 A3005 RMK A01 T01750157  RH  089%=      5-min Rain = 0
KJU1 240544Z 19005KT 18/16 A3005 RMK A01 T01750157  RH  089%=      5-min Rain = 0
KJU1 240545Z 19005KT 18/16 A3005 RMK A01 T01750157  RH  089%=      5-min Rain = 0
KJU1 240546Z 18005KT 18/16 A3005 RMK A01 T01750156  RH  089%=      5-min Rain = 0
KJU1 240547Z 20007KT 17/16 A3005 RMK A01 T01740156  RH  089%=      5-min Rain = 0
KJU1 240548Z 19007KT 17/16 A3005 RMK A01 T01740156  RH  089%=      5-min Rain = 0
KJU1 240549Z 19005KT 17/16 A3005 RMK A01 T01740157  RH  089%=      5-min Rain = 0
KJU1 240550Z 19006KT 17/16 A3005 RMK A01 T01740156  RH  089%=      5-min Rain = 0
KJU1 240551Z 19005KT 18/16 A3005 RMK A01 T01750156  RH  089%=      5-min Rain = 0
KJU1 240552Z 18004KT 18/16 A3005 RMK A01 T01750157  RH  089%=      5-min Rain = 0
KJU1 240553Z 19005KT 18/16 A3005 RMK A01 T01750156  RH  089%=      5-min Rain = 0
KJU1 240554Z 18005KT 18/16 A3005 RMK A01 T01750156  RH  088%=      5-min Rain = 0
KJU1 240555Z 18005KT 18/16 A3005 RMK A01 T01750156  RH  089%=      5-min Rain = 0
KJU1 240556Z 18005KT 18/16 A3006 RMK A01 T01750156  RH  089%=      5-min Rain = 0
KJU1 240557Z 18005KT 17/16 A3006 RMK A01 T01740155  RH  089%=      5-min Rain = 0
KJU1 240558Z 19004KT 17/16 A3006 RMK A01 T01740155  RH  089%=      5-min Rain = 0
KJU1 240559Z 19005KT 17/16 A3006 RMK A01 T01730155  RH  089%=      5-min Rain = 0
KJU1 240600Z 19005KT 17/16 A3006 RMK A01 T01730155  RH  089%=      5-min Rain = 0
KJU1 240601Z 19004KT 17/16 A3006 RMK A01 T01730155  RH  089%=      5-min Rain = 0
KJU1 240602Z 19004KT 17/16 A3006 RMK A01 T01730155  RH  090%=      5-min Rain = 0
KJU1 240603Z 20005KT 17/16 A3006 RMK A01 T01730155  RH  089%=      5-min Rain = 0
KJU1 240604Z 21003KT 17/16 A3006 RMK A01 T01730155  RH  090%=      5-min Rain = 0
KJU1 240605Z 19004KT 17/16 A3006 RMK A01 T01730155  RH  089%=      5-min Rain = 0
KJU1 240606Z 19005KT 17/16 A3006 RMK A01 T01730155  RH  089%=      5-min Rain = 0
KJU1 240607Z 19004KT 17/16 A3006 RMK A01 T01730155  RH  089%=      5-min Rain = 0
KJU1 240608Z 19005KT 17/16 A3006 RMK A01 T01730155  RH  089%=      5-min Rain = 0
KJU1 240609Z 19005KT 17/16 A3006 RMK A01 T01730155  RH  089%=      5-min Rain = 0
KJU1 240610Z 18004KT 17/16 A3006 RMK A01 T01720155  RH  089%=      5-min Rain = 0
KJU1 240611Z 19004KT 17/15 A3006 RMK A01 T01720154  RH  089%=      5-min Rain = 0
KJU1 240612Z 19005KT 17/16 A3006 RMK A01 T01720155  RH  090%=      5-min Rain = 0
KJU1 240613Z 19005KT 17/16 A3006 RMK A01 T01720155  RH  090%=      5-min Rain = 0
KJU1 240614Z 18005KT 17/15 A3006 RMK A01 T01720154  RH  089%=      5-min Rain = 0
KJU1 240615Z 18005KT 17/16 A3006 RMK A01 T01720155  RH  090%=      5-min Rain = 0
KJU1 240616Z 19003KT 17/16 A3006 RMK A01 T01730156  RH  089%=      5-min Rain = 0
KJU1 240617Z 18005KT 17/16 A3006 RMK A01 T01730155  RH  089%=      5-min Rain = 0
KJU1 240618Z 18004KT 17/16 A3006 RMK A01 T01730155  RH  089%=      5-min Rain = 0
KJU1 240619Z 18004KT 17/16 A3006 RMK A01 T01730155  RH  089%=      5-min Rain = 0
KJU1 240620Z 18005KT 17/16 A3006 RMK A01 T01730155  RH  089%=      5-min Rain = 0
KJU1 240621Z 18004KT 17/16 A3006 RMK A01 T01730155  RH  089%=      5-min Rain = 0
KJU1 240622Z 18005KT 17/16 A3006 RMK A01 T01730155  RH  089%=      5-min Rain = 0
KJU1 240623Z 18006KT 17/16 A3006 RMK A01 T01730155  RH  089%=      5-min Rain = 0
KJU1 240624Z 18005KT 17/16 A3006 RMK A01 T01730155  RH  089%=      5-min Rain = 0
KJU1 240625Z 19006KT 17/16 A3006 RMK A01 T01730155  RH  089%=      5-min Rain = 0
KJU1 240626Z 19005KT 17/16 A3006 RMK A01 T01740156  RH  089%=      5-min Rain = 0
KJU1 240627Z 19006KT 17/16 A3006 RMK A01 T01740155  RH  089%=      5-min Rain = 0
KJU1 240628Z 19005KT 18/16 A3006 RMK A01 T01750156  RH  089%=      5-min Rain = 0
KJU1 240629Z 19006KT 18/16 A3006 RMK A01 T01750156  RH  088%=      5-min Rain = 0
KJU1 240630Z 20005KT 18/16 A3006 RMK A01 T01760156  RH  088%=      5-min Rain = 0
KJU1 240631Z 20004KT 18/16 A3006 RMK A01 T01760156  RH  088%=      5-min Rain = 0
KJU1 240632Z 19005KT 18/16 A3006 RMK A01 T01760156  RH  088%=      5-min Rain = 0
KJU1 240633Z 19004KT 18/16 A3006 RMK A01 T01760155  RH  088%=      5-min Rain = 0
KJU1 240634Z 19006KT 18/16 A3006 RMK A01 T01760155  RH  088%=      5-min Rain = 0
KJU1 240635Z 19005KT 18/16 A3006 RMK A01 T01760155  RH  088%=      5-min Rain = 0
KJU1 240636Z 20006KT 18/16 A3006 RMK A01 T01760155  RH  088%=      5-min Rain = 0
KJU1 240637Z 19006KT 18/16 A3006 RMK A01 T01760155  RH  088%=      5-min Rain = 0
KJU1 240638Z 20005KT 18/16 A3006 RMK A01 T01760155  RH  088%=      5-min Rain = 0
KJU1 240639Z 19006KT 18/16 A3006 RMK A01 T01760155  RH  088%=      5-min Rain = 0
KJU1 240640Z 18005KT 18/16 A3006 RMK A01 T01760156  RH  088%=      5-min Rain = 0
KJU1 240641Z 19005KT 18/16 A3006 RMK A01 T01760155  RH  088%=      5-min Rain = 0
KJU1 240642Z 20005KT 18/16 A3006 RMK A01 T01750155  RH  088%=      5-min Rain = 0
KJU1 240643Z 18007KT 18/16 A3006 RMK A01 T01760155  RH  088%=      5-min Rain = 0
KJU1 240644Z 20006KT 18/16 A3006 RMK A01 T01760155  RH  088%=      5-min Rain = 0
KJU1 240645Z 20006KT 18/16 A3006 RMK A01 T01760155  RH  088%=      5-min Rain = 0
KJU1 240646Z 20005KT 18/16 A3006 RMK A01 T01770156  RH  088%=      5-min Rain = 0
KJU1 240647Z 19004KT 18/16 A3006 RMK A01 T01770156  RH  087%=      5-min Rain = 0
KJU1 240648Z 18003KT 18/16 A3006 RMK A01 T01770155  RH  087%=      5-min Rain = 0
KJU1 240649Z 19005KT 18/16 A3006 RMK A01 T01770155  RH  087%=      5-min Rain = 0
KJU1 240650Z 19006KT 18/16 A3006 RMK A01 T01760156  RH  088%=      5-min Rain = 0
KJU1 240651Z 19005KT 18/16 A3006 RMK A01 T01770156  RH  088%=      5-min Rain = 0
KJU1 240652Z 19006KT 18/16 A3006 RMK A01 T01770156  RH  088%=      5-min Rain = 0
KJU1 240653Z 19005KT 18/16 A3006 RMK A01 T01770157  RH  088%=      5-min Rain = 0
KJU1 240654Z 19004KT 18/16 A3006 RMK A01 T01780156  RH  087%=      5-min Rain = 0
KJU1 240655Z 19006KT 18/16 A3006 RMK A01 T01780156  RH  087%=      5-min Rain = 0
KJU1 240656Z 19005KT 18/16 A3006 RMK A01 T01790157  RH  087%=      5-min Rain = 0
KJU1 240657Z 19005KT 18/16 A3006 RMK A01 T01790157  RH  087%=      5-min Rain = 0
KJU1 240658Z 19005KT 18/16 A3006 RMK A01 T01790157  RH  087%=      5-min Rain = 0
KJU1 240659Z 18006KT 18/16 A3005 RMK A01 T01790157  RH  087%=      5-min Rain = 0
KJU1 240700Z 19006KT 18/16 A3005 RMK A01 T01790157  RH  087%=      5-min Rain = 0
KJU1 240701Z 20005KT 18/16 A3005 RMK A01 T01790156  RH  087%=      5-min Rain = 0
KJU1 240702Z 19006KT 18/16 A3005 RMK A01 T01790157  RH  087%=      5-min Rain = 0
KJU1 240703Z 19006KT 18/16 A3005 RMK A01 T01790157  RH  087%=      5-min Rain = 0
KJU1 240704Z 19004KT 18/16 A3005 RMK A01 T01790157  RH  087%=      5-min Rain = 0
KJU1 240705Z 19007KT 18/16 A3005 RMK A01 T01790157  RH  087%=      5-min Rain = 0
KJU1 240706Z 18006KT 18/16 A3005 RMK A01 T01790157  RH  087%=      5-min Rain = 0
KJU1 240707Z 19005KT 18/16 A3005 RMK A01 T01800157  RH  087%=      5-min Rain = 0
KJU1 240708Z 19004KT 18/16 A3005 RMK A01 T01800157  RH  087%=      5-min Rain = 0
KJU1 240709Z 18004KT 18/16 A3005 RMK A01 T01800157  RH  087%=      5-min Rain = 0
KJU1 240710Z 18004KT 18/16 A3005 RMK A01 T01800157  RH  087%=      5-min Rain = 0
KJU1 240711Z 18005KT 18/16 A3005 RMK A01 T01800158  RH  087%=      5-min Rain = 0
KJU1 240712Z 19004KT 18/16 A3005 RMK A01 T01800158  RH  087%=      5-min Rain = 0
KJU1 240713Z 18005KT 18/16 A3005 RMK A01 T01800157  RH  087%=      5-min Rain = 0
KJU1 240714Z 18004KT 18/16 A3005 RMK A01 T01800157  RH  086%=      5-min Rain = 0
KJU1 240715Z 19004KT 18/16 A3005 RMK A01 T01800157  RH  086%=      5-min Rain = 0
KJU1 240716Z 19005KT 18/16 A3005 RMK A01 T01800157  RH  086%=      5-min Rain = 0
KJU1 240717Z 20005KT 18/16 A3005 RMK A01 T01800157  RH  087%=      5-min Rain = 0
KJU1 240718Z 17005KT 18/16 A3005 RMK A01 T01790157  RH  087%=      5-min Rain = 0
KJU1 240719Z 18005KT 18/16 A3005 RMK A01 T01790158  RH  087%=      5-min Rain = 0
KJU1 240720Z 19005KT 18/16 A3005 RMK A01 T01790158  RH  087%=      5-min Rain = 0
KJU1 240721Z 19004KT 18/16 A3005 RMK A01 T01790158  RH  087%=      5-min Rain = 0
KJU1 240722Z 19003KT 18/16 A3005 RMK A01 T01790158  RH  087%=      5-min Rain = 0
KJU1 240723Z 19004KT 18/16 A3005 RMK A01 T01790158  RH  087%=      5-min Rain = 0
KJU1 240724Z 20004KT 18/16 A3005 RMK A01 T01800158  RH  087%=      5-min Rain = 0
KJU1 240725Z 19004KT 18/16 A3005 RMK A01 T01800159  RH  087%=      5-min Rain = 0
KJU1 240726Z 19003KT 18/16 A3005 RMK A01 T01800159  RH  087%=      5-min Rain = 0
KJU1 240727Z 19003KT 18/16 A3005 RMK A01 T01800158  RH  087%=      5-min Rain = 0
KJU1 240728Z 19002KT 18/16 A3005 RMK A01 T01800159  RH  087%=      5-min Rain = 0
KJU1 240729Z 19003KT 18/16 A3005 RMK A01 T01800159  RH  087%=      5-min Rain = 0
KJU1 240730Z 18003KT 18/16 A3005 RMK A01 T01800159  RH  088%=      5-min Rain = 0
KJU1 240731Z 19004KT 18/16 A3005 RMK A01 T01800159  RH  088%=      5-min Rain = 0
KJU1 240732Z 18003KT 18/16 A3005 RMK A01 T01800159  RH  088%=      5-min Rain = 0
KJU1 240733Z 18004KT 18/16 A3005 RMK A01 T01800159  RH  087%=      5-min Rain = 0
KJU1 240734Z 18005KT 18/16 A3005 RMK A01 T01800158  RH  087%=      5-min Rain = 0
KJU1 240735Z 18004KT 18/16 A3005 RMK A01 T01810159  RH  087%=      5-min Rain = 0
KJU1 240736Z 17003KT 18/16 A3005 RMK A01 T01810159  RH  087%=      5-min Rain = 0
KJU1 240737Z 18004KT 18/16 A3005 RMK A01 T01810159  RH  087%=      5-min Rain = 0
KJU1 240738Z 19004KT 18/16 A3005 RMK A01 T01810159  RH  087%=      5-min Rain = 0
KJU1 240739Z 19005KT 18/16 A3005 RMK A01 T01810159  RH  087%=      5-min Rain = 0
KJU1 240740Z 18005KT 18/16 A3005 RMK A01 T01810159  RH  087%=      5-min Rain = 0
KJU1 240741Z 18005KT 18/16 A3005 RMK A01 T01820158  RH  086%=      5-min Rain = 0
KJU1 240742Z 19004KT 18/16 A3005 RMK A01 T01820159  RH  086%=      5-min Rain = 0
KJU1 240743Z 18006KT 18/16 A3005 RMK A01 T01820159  RH  086%=      5-min Rain = 0
KJU1 240744Z 19005KT 18/16 A3005 RMK A01 T01820159  RH  086%=      5-min Rain = 0
KJU1 240745Z 19005KT 18/16 A3005 RMK A01 T01820158  RH  086%=      5-min Rain = 0
KJU1 240746Z 18004KT 18/16 A3005 RMK A01 T01820159  RH  086%=      5-min Rain = 0
KJU1 240747Z 19004KT 18/16 A3005 RMK A01 T01830159  RH  086%=      5-min Rain = 0
KJU1 240748Z 19004KT 18/16 A3005 RMK A01 T01830159  RH  086%=      5-min Rain = 0
KJU1 240749Z 18003KT 18/16 A3005 RMK A01 T01830159  RH  086%=      5-min Rain = 0
KJU1 240750Z 18004KT 18/16 A3005 RMK A01 T01820159  RH  086%=      5-min Rain = 0
KJU1 240751Z 18003KT 18/16 A3005 RMK A01 T01820159  RH  086%=      5-min Rain = 0
KJU1 240752Z 18004KT 18/16 A3005 RMK A01 T01820159  RH  087%=      5-min Rain = 0
KJU1 240753Z 18003KT 18/16 A3005 RMK A01 T01810158  RH  086%=      5-min Rain = 0
KJU1 240754Z 17003KT 18/16 A3005 RMK A01 T01820159  RH  086%=      5-min Rain = 0
KJU1 240755Z 17002KT 18/16 A3005 RMK A01 T01820159  RH  086%=      5-min Rain = 0
KJU1 240756Z 18003KT 18/16 A3005 RMK A01 T01820159  RH  086%=      5-min Rain = 0
KJU1 240757Z 18003KT 18/16 A3005 RMK A01 T01820160  RH  087%=      5-min Rain = 0
KJU1 240758Z 17003KT 18/16 A3005 RMK A01 T01820159  RH  087%=      5-min Rain = 0
KJU1 240759Z 18003KT 18/16 A3005 RMK A01 T01820159  RH  087%=      5-min Rain = 0
KJU1 240800Z 19003KT 18/16 A3005 RMK A01 T01820159  RH  087%=      5-min Rain = 0
KJU1 240801Z 19003KT 18/16 A3005 RMK A01 T01820159  RH  087%=      5-min Rain = 0
KJU1 240802Z 19003KT 18/16 A3005 RMK A01 T01810159  RH  087%=      5-min Rain = 0
KJU1 240803Z 18004KT 18/16 A3005 RMK A01 T01810159  RH  087%=      5-min Rain = 0
KJU1 240804Z 19005KT 18/16 A3005 RMK A01 T01820159  RH  087%=      5-min Rain = 0
KJU1 240805Z 19006KT 18/16 A3005 RMK A01 T01820159  RH  087%=      5-min Rain = 0
KJU1 240806Z 20005KT 18/16 A3005 RMK A01 T01820159  RH  086%=      5-min Rain = 0
KJU1 240807Z 18004KT 18/16 A3005 RMK A01 T01820159  RH  086%=      5-min Rain = 0
KJU1 240808Z 18004KT 18/16 A3005 RMK A01 T01830159  RH  086%=      5-min Rain = 0
KJU1 240809Z 19004KT 18/16 A3005 RMK A01 T01820159  RH  086%=      5-min Rain = 0
KJU1 240810Z 18004KT 18/16 A3005 RMK A01 T01830159  RH  086%=      5-min Rain = 0
KJU1 240811Z 18004KT 18/16 A3005 RMK A01 T01820159  RH  086%=      5-min Rain = 0
KJU1 240812Z 19004KT 18/16 A3005 RMK A01 T01820159  RH  086%=      5-min Rain = 0
KJU1 240813Z 19004KT 18/16 A3005 RMK A01 T01830160  RH  086%=      5-min Rain = 0
KJU1 240814Z 19004KT 18/16 A3005 RMK A01 T01830159  RH  086%=      5-min Rain = 0
KJU1 240815Z 18004KT 18/16 A3005 RMK A01 T01820159  RH  086%=      5-min Rain = 0
KJU1 240816Z 18004KT 18/16 A3005 RMK A01 T01820159  RH  086%=      5-min Rain = 0
KJU1 240817Z 18004KT 18/16 A3005 RMK A01 T01830159  RH  086%=      5-min Rain = 0
KJU1 240818Z 18004KT 18/16 A3005 RMK A01 T01820159  RH  086%=      5-min Rain = 0
KJU1 240819Z 18004KT 18/16 A3005 RMK A01 T01820159  RH  086%=      5-min Rain = 0
KJU1 240820Z 18004KT 18/16 A3005 RMK A01 T01820159  RH  086%=      5-min Rain = 0
KJU1 240821Z 18004KT 18/16 A3005 RMK A01 T01830160  RH  086%=      5-min Rain = 0
KJU1 240822Z 18003KT 18/16 A3005 RMK A01 T01820160  RH  086%=      5-min Rain = 0
KJU1 240823Z 18003KT 18/16 A3005 RMK A01 T01820159  RH  087%=      5-min Rain = 0
KJU1 240824Z 18003KT 18/16 A3005 RMK A01 T01820159  RH  086%=      5-min Rain = 0
KJU1 240825Z 18003KT 18/16 A3005 RMK A01 T01820159  RH  087%=      5-min Rain = 0
KJU1 240826Z 18003KT 18/16 A3005 RMK A01 T01820159  RH  087%=      5-min Rain = 0
KJU1 240827Z 18003KT 18/16 A3005 RMK A01 T01820160  RH  087%=      5-min Rain = 0
KJU1 240828Z 19004KT 18/16 A3005 RMK A01 T01820160  RH  087%=      5-min Rain = 0
KJU1 240829Z 18003KT 18/16 A3005 RMK A01 T01820160  RH  087%=      5-min Rain = 0
KJU1 240830Z 18004KT 18/16 A3005 RMK A01 T01820160  RH  087%=      5-min Rain = 0
KJU1 240831Z 17004KT 18/16 A3005 RMK A01 T01820160  RH  087%=      5-min Rain = 0
KJU1 240832Z 18005KT 18/16 A3005 RMK A01 T01820160  RH  087%=      5-min Rain = 0
KJU1 240833Z 18004KT 18/16 A3005 RMK A01 T01820160  RH  087%=      5-min Rain = 0
KJU1 240834Z 18004KT 18/16 A3005 RMK A01 T01820160  RH  087%=      5-min Rain = 0
KJU1 240835Z 19004KT 18/16 A3005 RMK A01 T01820160  RH  087%=      5-min Rain = 0
KJU1 240836Z 18004KT 18/16 A3005 RMK A01 T01820159  RH  087%=      5-min Rain = 0
KJU1 240837Z 18003KT 18/16 A3005 RMK A01 T01820160  RH  087%=      5-min Rain = 0
KJU1 240838Z 18003KT 18/16 A3005 RMK A01 T01820160  RH  087%=      5-min Rain = 0
KJU1 240839Z 18004KT 18/16 A3005 RMK A01 T01820160  RH  087%=      5-min Rain = 0
KJU1 240840Z 18004KT 18/16 A3005 RMK A01 T01820160  RH  087%=      5-min Rain = 0
KJU1 240841Z 18004KT 18/16 A3005 RMK A01 T01820160  RH  087%=      5-min Rain = 0
KJU1 240842Z 18004KT 18/16 A3005 RMK A01 T01820160  RH  087%=      5-min Rain = 0
KJU1 240843Z 18003KT 18/16 A3005 RMK A01 T01820160  RH  087%=      5-min Rain = 0
KJU1 240844Z 17004KT 18/16 A3004 RMK A01 T01820160  RH  087%=      5-min Rain = 0
KJU1 240845Z 16003KT 18/16 A3004 RMK A01 T01820160  RH  087%=      5-min Rain = 0
KJU1 240846Z 16003KT 18/16 A3004 RMK A01 T01820160  RH  087%=      5-min Rain = 0
KJU1 240847Z 15003KT 18/16 A3004 RMK A01 T01820160  RH  087%=      5-min Rain = 0
KJU1 240848Z 16004KT 18/16 A3004 RMK A01 T01820160  RH  087%=      5-min Rain = 0
KJU1 240849Z 16004KT 18/16 A3004 RMK A01 T01820160  RH  087%=      5-min Rain = 0
KJU1 240850Z 16004KT 18/16 A3004 RMK A01 T01820160  RH  087%=      5-min Rain = 0
KJU1 240851Z 18004KT 18/16 A3004 RMK A01 T01820160  RH  087%=      5-min Rain = 0
KJU1 240852Z 18004KT 18/16 A3004 RMK A01 T01820160  RH  087%=      5-min Rain = 0
KJU1 240853Z 17004KT 18/16 A3004 RMK A01 T01820159  RH  087%=      5-min Rain = 0
KJU1 240854Z 17005KT 18/16 A3004 RMK A01 T01820159  RH  087%=      5-min Rain = 0
KJU1 240855Z 17005KT 18/16 A3004 RMK A01 T01820160  RH  087%=      5-min Rain = 0
KJU1 240856Z 17005KT 18/16 A3004 RMK A01 T01820160  RH  087%=      5-min Rain = 0
KJU1 240857Z 18005KT 18/16 A3004 RMK A01 T01830160  RH  086%=      5-min Rain = 0
KJU1 240858Z 18004KT 18/16 A3004 RMK A01 T01830160  RH  086%=      5-min Rain = 0
KJU1 240859Z 19004KT 18/16 A3004 RMK A01 T01820160  RH  086%=      5-min Rain = 0
KJU1 240900Z 18005KT 18/16 A3004 RMK A01 T01830160  RH  086%=      5-min Rain = 0
KJU1 240901Z 17005KT 18/16 A3004 RMK A01 T01830159  RH  086%=      5-min Rain = 0
KJU1 240902Z 19006KT 18/16 A3004 RMK A01 T01830160  RH  086%=      5-min Rain = 0
KJU1 240903Z 19009KT 18/16 A3004 RMK A01 T01840160  RH  086%=      5-min Rain = 0
KJU1 240904Z 18007KT 18/16 A3004 RMK A01 T01840159  RH  086%=      5-min Rain = 0
KJU1 240905Z 18005KT 18/16 A3004 RMK A01 T01840159  RH  085%=      5-min Rain = 0
KJU1 240906Z 18005KT 18/16 A3004 RMK A01 T01840160  RH  085%=      5-min Rain = 0
KJU1 240907Z 18004KT 18/16 A3004 RMK A01 T01840160  RH  086%=      5-min Rain = 0
KJU1 240908Z 17004KT 18/16 A3004 RMK A01 T01840160  RH  086%=      5-min Rain = 0
KJU1 240909Z 18004KT 18/16 A3004 RMK A01 T01840160  RH  086%=      5-min Rain = 0
KJU1 240910Z 19003KT 18/16 A3004 RMK A01 T01840160  RH  086%=      5-min Rain = 0
KJU1 240911Z 18004KT 18/16 A3004 RMK A01 T01840160  RH  086%=      5-min Rain = 0
KJU1 240912Z 17004KT 18/16 A3004 RMK A01 T01830160  RH  086%=      5-min Rain = 0
KJU1 240913Z 18004KT 18/16 A3004 RMK A01 T01840160  RH  086%=      5-min Rain = 0
KJU1 240914Z 18004KT 18/16 A3004 RMK A01 T01840160  RH  086%=      5-min Rain = 0
KJU1 240915Z 18004KT 18/16 A3004 RMK A01 T01840160  RH  086%=      5-min Rain = 0
KJU1 240916Z 17003KT 18/16 A3004 RMK A01 T01840161  RH  086%=      5-min Rain = 0
KJU1 240917Z 16002KT 18/16 A3004 RMK A01 T01830160  RH  086%=      5-min Rain = 0
KJU1 240918Z 18003KT 18/16 A3004 RMK A01 T01830160  RH  087%=      5-min Rain = 0
KJU1 240919Z 18003KT 18/16 A3004 RMK A01 T01830161  RH  087%=      5-min Rain = 0
KJU1 240920Z 18004KT 18/16 A3004 RMK A01 T01830160  RH  087%=      5-min Rain = 0
KJU1 240921Z 17004KT 18/16 A3004 RMK A01 T01830161  RH  087%=      5-min Rain = 0
KJU1 240922Z 18004KT 18/16 A3004 RMK A01 T01820161  RH  087%=      5-min Rain = 0
KJU1 240923Z 18004KT 18/16 A3004 RMK A01 T01820160  RH  087%=      5-min Rain = 0
KJU1 240924Z 18004KT 18/16 A3004 RMK A01 T01820160  RH  087%=      5-min Rain = 0
KJU1 240925Z 18005KT 18/16 A3004 RMK A01 T01830160  RH  087%=      5-min Rain = 0
KJU1 240926Z 18004KT 18/16 A3004 RMK A01 T01830160  RH  087%=      5-min Rain = 0
KJU1 240927Z 18004KT 18/16 A3004 RMK A01 T01820160  RH  087%=      5-min Rain = 0
KJU1 240928Z 18004KT 18/16 A3004 RMK A01 T01830160  RH  087%=      5-min Rain = 0
KJU1 240929Z 19004KT 18/16 A3004 RMK A01 T01820160  RH  087%=      5-min Rain = 0
KJU1 240930Z 19003KT 18/16 A3004 RMK A01 T01820160  RH  087%=      5-min Rain = 0
KJU1 240931Z 19005KT 18/16 A3004 RMK A01 T01820160  RH  087%=      5-min Rain = 0
KJU1 240932Z 19004KT 18/16 A3004 RMK A01 T01820160  RH  087%=      5-min Rain = 0
KJU1 240933Z 20004KT 18/16 A3004 RMK A01 T01830160  RH  087%=      5-min Rain = 0
KJU1 240934Z 20005KT 18/16 A3004 RMK A01 T01830160  RH  087%=      5-min Rain = 0
KJU1 240935Z 20005KT 18/16 A3004 RMK A01 T01830160  RH  086%=      5-min Rain = 0
KJU1 240936Z 17003KT 18/16 A3004 RMK A01 T01830160  RH  086%=      5-min Rain = 0
KJU1 240937Z 18005KT 18/16 A3004 RMK A01 T01840160  RH  086%=      5-min Rain = 0
KJU1 240938Z 16006KT 18/16 A3004 RMK A01 T01830160  RH  086%=      5-min Rain = 0
KJU1 240939Z 18007KT 18/16 A3004 RMK A01 T01840160  RH  086%=      5-min Rain = 0
KJU1 240940Z 18007KT 18/16 A3004 RMK A01 T01840160  RH  086%=      5-min Rain = 0
KJU1 240941Z 18007G12KT 18/16 A3004 RMK A01 T01840160  RH  086%=      5-min Rain = 0
KJU1 240942Z 19011KT 18/16 A3004 RMK A01 T01840160  RH  086%=      5-min Rain = 0
KJU1 240943Z 20010KT 19/16 A3004 RMK A01 T01850160  RH  086%=      5-min Rain = 0
KJU1 240944Z 19008KT 19/16 A3004 RMK A01 T01850160  RH  085%=      5-min Rain = 0
KJU1 240945Z 18008KT 19/16 A3004 RMK A01 T01850161  RH  085%=      5-min Rain = 0
KJU1 240946Z 18007KT 19/16 A3004 RMK A01 T01850160  RH  085%=      5-min Rain = 0
KJU1 240947Z 19008KT 19/16 A3004 RMK A01 T01850160  RH  085%=      5-min Rain = 0
KJU1 240948Z 18007KT 19/16 A3004 RMK A01 T01850160  RH  085%=      5-min Rain = 0
KJU1 240949Z 18007KT 19/16 A3004 RMK A01 T01850160  RH  085%=      5-min Rain = 0
KJU1 240950Z 18006KT 19/16 A3004 RMK A01 T01850160  RH  085%=      5-min Rain = 0
KJU1 240951Z 17007G12KT 19/16 A3004 RMK A01 T01850160  RH  085%=      5-min Rain = 0
KJU1 240952Z 17008KT 19/16 A3004 RMK A01 T01850160  RH  085%=      5-min Rain = 0
KJU1 240953Z 18007KT 19/16 A3004 RMK A01 T01850160  RH  085%=      5-min Rain = 0
KJU1 240954Z 18006KT 19/16 A3004 RMK A01 T01860160  RH  085%=      5-min Rain = 0
KJU1 240955Z 19008KT 19/16 A3004 RMK A01 T01860160  RH  085%=      5-min Rain = 0
KJU1 240956Z 17011KT 19/16 A3004 RMK A01 T01850160  RH  085%=      5-min Rain = 0
KJU1 240957Z 19007KT 19/16 A3004 RMK A01 T01850160  RH  085%=      5-min Rain = 0
KJU1 240958Z 18007KT 19/16 A3004 RMK A01 T01850160  RH  085%=      5-min Rain = 0
KJU1 240959Z 19008KT 19/16 A3004 RMK A01 T01850160  RH  085%=      5-min Rain = 0
KJU1 241000Z 19008KT 19/16 A3004 RMK A01 T01850160  RH  085%=      5-min Rain = 0
KJU1 241001Z 19009KT 19/16 A3004 RMK A01 T01850160  RH  085%=      5-min Rain = 0
KJU1 241002Z 18008KT 19/16 A3004 RMK A01 T01860160  RH  085%=      5-min Rain = 0
KJU1 241003Z 16009KT 19/16 A3004 RMK A01 T01860160  RH  085%=      5-min Rain = 0
KJU1 241004Z 18006KT 19/16 A3004 RMK A01 T01860160  RH  085%=      5-min Rain = 0
KJU1 241005Z 19007KT 19/16 A3004 RMK A01 T01860160  RH  085%=      5-min Rain = 0
KJU1 241006Z 19008KT 19/16 A3004 RMK A01 T01860160  RH  085%=      5-min Rain = 0
KJU1 241007Z 19010KT 19/16 A3004 RMK A01 T01860160  RH  085%=      5-min Rain = 0
KJU1 241008Z 19009KT 19/16 A3004 RMK A01 T01860160  RH  085%=      5-min Rain = 0
KJU1 241009Z 19008KT 19/16 A3004 RMK A01 T01860160  RH  085%=      5-min Rain = 0
KJU1 241010Z 20010KT 19/16 A3004 RMK A01 T01860160  RH  085%=      5-min Rain = 0
KJU1 241011Z 19009KT 19/16 A3004 RMK A01 T01860160  RH  085%=      5-min Rain = 0
KJU1 241012Z 20009G14KT 19/16 A3004 RMK A01 T01860160  RH  085%=      5-min Rain = 0
KJU1 241013Z 20009KT 19/16 A3004 RMK A01 T01860160  RH  085%=      5-min Rain = 0
KJU1 241014Z 20009KT 19/16 A3004 RMK A01 T01860160  RH  085%=      5-min Rain = 0
KJU1 241015Z 20008KT 19/16 A3004 RMK A01 T01860161  RH  085%=      5-min Rain = 0
KJU1 241016Z 19008G13KT 19/16 A3004 RMK A01 T01860161  RH  085%=      5-min Rain = 0
KJU1 241017Z 20006KT 19/16 A3004 RMK A01 T01860161  RH  085%=      5-min Rain = 0
KJU1 241018Z 19006KT 19/16 A3004 RMK A01 T01860161  RH  085%=      5-min Rain = 0
KJU1 241019Z 19008KT 19/16 A3004 RMK A01 T01860161  RH  086%=      5-min Rain = 0
KJU1 241020Z 18008KT 19/16 A3004 RMK A01 T01850161  RH  086%=      5-min Rain = 0
KJU1 241021Z 19010KT 19/16 A3004 RMK A01 T01850161  RH  086%=      5-min Rain = 0
KJU1 241022Z 19008KT 19/16 A3004 RMK A01 T01850161  RH  086%=      5-min Rain = 0
KJU1 241023Z 18007KT 19/16 A3004 RMK A01 T01850161  RH  086%=      5-min Rain = 0
KJU1 241024Z 18008KT 19/16 A3004 RMK A01 T01850161  RH  086%=      5-min Rain = 0
KJU1 241025Z 18009KT 19/16 A3004 RMK A01 T01850161  RH  086%=      5-min Rain = 0
KJU1 241026Z 18009KT 19/16 A3004 RMK A01 T01850162  RH  086%=      5-min Rain = 0
KJU1 241027Z 18009KT 19/16 A3004 RMK A01 T01850161  RH  086%=      5-min Rain = 0
KJU1 241028Z 18008KT 19/16 A3004 RMK A01 T01850161  RH  086%=      5-min Rain = 0
KJU1 241029Z 19011G17KT 19/16 A3004 RMK A01 T01850161  RH  086%=      5-min Rain = 0
KJU1 241030Z 19010KT 19/16 A3004 RMK A01 T01850161  RH  086%=      5-min Rain = 0
KJU1 241031Z 19010KT 19/16 A3004 RMK A01 T01860161  RH  086%=      5-min Rain = 0
KJU1 241032Z 19009KT 19/16 A3004 RMK A01 T01860161  RH  085%=      5-min Rain = 0
KJU1 241033Z 19009KT 19/16 A3004 RMK A01 T01860161  RH  086%=      5-min Rain = 0
KJU1 241034Z 19009KT 19/16 A3004 RMK A01 T01860161  RH  085%=      5-min Rain = 0
KJU1 241035Z 18007KT 19/16 A3004 RMK A01 T01860161  RH  086%=      5-min Rain = 0
KJU1 241036Z 19008KT 19/16 A3004 RMK A01 T01860161  RH  086%=      5-min Rain = 0
KJU1 241037Z 19009KT 19/16 A3004 RMK A01 T01860161  RH  086%=      5-min Rain = 0
KJU1 241038Z 18009KT 19/16 A3004 RMK A01 T01860161  RH  086%=      5-min Rain = 0
KJU1 241039Z 18006KT 19/16 A3004 RMK A01 T01860162  RH  086%=      5-min Rain = 0
KJU1 241040Z 19007KT 19/16 A3004 RMK A01 T01860162  RH  086%=      5-min Rain = 0
KJU1 241041Z 19007KT 19/16 A3004 RMK A01 T01850162  RH  086%=      5-min Rain = 0
KJU1 241042Z 19009KT 19/16 A3004 RMK A01 T01850161  RH  086%=      5-min Rain = 0
KJU1 241043Z 19009KT 19/16 A3004 RMK A01 T01850161  RH  086%=      5-min Rain = 0
KJU1 241044Z 19008KT 19/16 A3004 RMK A01 T01850161  RH  086%=      5-min Rain = 0
KJU1 241045Z 18008KT 19/16 A3004 RMK A01 T01850161  RH  086%=      5-min Rain = 0
KJU1 241046Z 18007KT 19/16 A3004 RMK A01 T01850161  RH  086%=      5-min Rain = 0
KJU1 241047Z 19007KT 19/16 A3004 RMK A01 T01850161  RH  086%=      5-min Rain = 0
KJU1 241048Z 19008KT 19/16 A3004 RMK A01 T01850161  RH  086%=      5-min Rain = 0
KJU1 241049Z 19007KT 19/16 A3004 RMK A01 T01850162  RH  086%=      5-min Rain = 0
KJU1 241050Z 19007KT 19/16 A3004 RMK A01 T01850162  RH  086%=      5-min Rain = 0
KJU1 241051Z 19008KT 19/16 A3004 RMK A01 T01850162  RH  086%=      5-min Rain = 0
KJU1 241052Z 19008KT 19/16 A3004 RMK A01 T01850162  RH  086%=      5-min Rain = 0
KJU1 241053Z 17008KT 19/16 A3004 RMK A01 T01850162  RH  086%=      5-min Rain = 0
KJU1 241054Z 18009KT 19/16 A3004 RMK A01 T01850161  RH  086%=      5-min Rain = 0
KJU1 241055Z 19008KT 19/16 A3004 RMK A01 T01850162  RH  086%=      5-min Rain = 0
KJU1 241056Z 19007KT 19/16 A3004 RMK A01 T01850162  RH  086%=      5-min Rain = 0
KJU1 241057Z 19008KT 19/16 A3004 RMK A01 T01850162  RH  086%=      5-min Rain = 0
KJU1 241058Z 20008KT 19/16 A3004 RMK A01 T01850162  RH  086%=      5-min Rain = 0
KJU1 241059Z 18007KT 19/16 A3004 RMK A01 T01850162  RH  086%=      5-min Rain = 0
KJU1 241100Z 19007KT 19/16 A3004 RMK A01 T01850162  RH  086%=      5-min Rain = 0
KJU1 241101Z 20010KT 19/16 A3004 RMK A01 T01850162  RH  087%=      5-min Rain = 0
KJU1 241102Z 19009KT 19/16 A3004 RMK A01 T01850162  RH  086%=      5-min Rain = 0
KJU1 241103Z 18007KT 19/16 A3004 RMK A01 T01850162  RH  086%=      5-min Rain = 0
KJU1 241104Z 18006KT 19/16 A3004 RMK A01 T01850162  RH  086%=      5-min Rain = 0
KJU1 241105Z 18009KT 19/16 A3004 RMK A01 T01850162  RH  086%=      5-min Rain = 0
KJU1 241106Z 19009KT 19/16 A3004 RMK A01 T01850162  RH  086%=      5-min Rain = 0
KJU1 241107Z 19010KT 19/16 A3005 RMK A01 T01850162  RH  087%=      5-min Rain = 0
KJU1 241108Z 19008KT 19/16 A3005 RMK A01 T01850162  RH  087%=      5-min Rain = 0
KJU1 241109Z 19007KT 19/16 A3005 RMK A01 T01850162  RH  087%=      5-min Rain = 0
KJU1 241110Z 19008KT 19/16 A3005 RMK A01 T01850162  RH  087%=      5-min Rain = 0
KJU1 241111Z 18008KT 19/16 A3005 RMK A01 T01850163  RH  087%=      5-min Rain = 0
KJU1 241112Z 19007KT 19/16 A3005 RMK A01 T01850163  RH  087%=      5-min Rain = 0
KJU1 241113Z 19008KT 18/16 A3005 RMK A01 T01840163  RH  087%=      5-min Rain = 0
KJU1 241114Z 18008KT 18/16 A3005 RMK A01 T01840163  RH  087%=      5-min Rain = 0
KJU1 241115Z 18008KT 18/16 A3005 RMK A01 T01840163  RH  087%=      5-min Rain = 0
KJU1 241116Z 20006KT 18/16 A3005 RMK A01 T01840163  RH  087%=      5-min Rain = 0
KJU1 241117Z 19005KT 18/16 A3005 RMK A01 T01840163  RH  088%=      5-min Rain = 0
KJU1 241118Z 18005KT 18/16 A3005 RMK A01 T01840163  RH  088%=      5-min Rain = 0
KJU1 241119Z 19005KT 18/16 A3005 RMK A01 T01840163  RH  088%=      5-min Rain = 0
KJU1 241120Z 18006KT 18/16 A3005 RMK A01 T01840163  RH  088%=      5-min Rain = 0
KJU1 241121Z 19006KT 18/16 A3005 RMK A01 T01840163  RH  088%=      5-min Rain = 0
KJU1 241122Z 19006KT 18/16 A3005 RMK A01 T01830163  RH  088%=      5-min Rain = 0
KJU1 241123Z 19007KT 18/16 A3005 RMK A01 T01840163  RH  088%=      5-min Rain = 0
KJU1 241124Z 19006KT 18/16 A3005 RMK A01 T01840163  RH  088%=      5-min Rain = 0
KJU1 241125Z 19008KT 18/16 A3005 RMK A01 T01840163  RH  088%=      5-min Rain = 0
KJU1 241126Z 18006KT 18/16 A3005 RMK A01 T01840163  RH  088%=      5-min Rain = 0
KJU1 241127Z 18008KT 18/16 A3005 RMK A01 T01840163  RH  088%=      5-min Rain = 0
KJU1 241128Z 18008KT 18/16 A3005 RMK A01 T01830163  RH  088%=      5-min Rain = 0
KJU1 241129Z 18007KT 18/16 A3005 RMK A01 T01830163  RH  088%=      5-min Rain = 0
KJU1 241130Z 17005KT 18/16 A3005 RMK A01 T01830162  RH  088%=      5-min Rain = 0
KJU1 241131Z 18006KT 18/16 A3005 RMK A01 T01830163  RH  088%=      5-min Rain = 0
KJU1 241132Z 17007KT 18/16 A3005 RMK A01 T01840163  RH  088%=      5-min Rain = 0
KJU1 241133Z 19005KT 18/16 A3005 RMK A01 T01830163  RH  088%=      5-min Rain = 0
KJU1 241134Z 18006KT 18/16 A3005 RMK A01 T01830163  RH  088%=      5-min Rain = 0
KJU1 241135Z 18006KT 18/16 A3005 RMK A01 T01830163  RH  088%=      5-min Rain = 0
KJU1 241136Z 18007KT 18/16 A3005 RMK A01 T01830163  RH  088%=      5-min Rain = 0
KJU1 241137Z 17006KT 18/16 A3005 RMK A01 T01830163  RH  088%=      5-min Rain = 0
KJU1 241138Z 18007KT 18/16 A3005 RMK A01 T01830163  RH  088%=      5-min Rain = 0
KJU1 241139Z 17007KT 18/16 A3005 RMK A01 T01830163  RH  088%=      5-min Rain = 0
KJU1 241140Z 18008KT 18/16 A3005 RMK A01 T01830163  RH  088%=      5-min Rain = 0
KJU1 241141Z 18008KT 18/16 A3005 RMK A01 T01840163  RH  088%=      5-min Rain = 0
KJU1 241142Z 18007KT 18/16 A3005 RMK A01 T01830162  RH  088%=      5-min Rain = 0
KJU1 241143Z 17008KT 18/16 A3005 RMK A01 T01840163  RH  087%=      5-min Rain = 0
KJU1 241144Z 18006KT 18/16 A3005 RMK A01 T01840163  RH  087%=      5-min Rain = 0
KJU1 241145Z 19007KT 18/16 A3005 RMK A01 T01840163  RH  087%=      5-min Rain = 0
KJU1 241146Z 19005KT 18/16 A3005 RMK A01 T01840163  RH  088%=      5-min Rain = 0
KJU1 241147Z 18006KT 18/16 A3005 RMK A01 T01840163  RH  088%=      5-min Rain = 0
KJU1 241148Z 18006KT 18/16 A3005 RMK A01 T01830163  RH  088%=      5-min Rain = 0
KJU1 241149Z 18006KT 18/16 A3005 RMK A01 T01840163  RH  088%=      5-min Rain = 0
KJU1 241150Z 18006KT 18/16 A3005 RMK A01 T01830163  RH  088%=      5-min Rain = 0
KJU1 241151Z 19005KT 18/16 A3005 RMK A01 T01830163  RH  088%=      5-min Rain = 0
KJU1 241152Z 18005KT 18/16 A3005 RMK A01 T01840163  RH  088%=      5-min Rain = 0
KJU1 241153Z 18005KT 18/16 A3005 RMK A01 T01830163  RH  088%=      5-min Rain = 0
KJU1 241154Z 19004KT 18/16 A3005 RMK A01 T01830163  RH  088%=      5-min Rain = 0
KJU1 241155Z 18004KT 18/16 A3005 RMK A01 T01830163  RH  088%=      5-min Rain = 0
KJU1 241156Z 18004KT 18/16 A3005 RMK A01 T01840163  RH  088%=      5-min Rain = 0
KJU1 241157Z 18004KT 18/16 A3005 RMK A01 T01830163  RH  088%=      5-min Rain = 0
KJU1 241158Z 18006KT 18/16 A3005 RMK A01 T01840163  RH  088%=      5-min Rain = 0
KJU1 241159Z 19005KT 18/16 A3005 RMK A01 T01830163  RH  088%=      5-min Rain = 0
KJU1 241200Z 17005KT 18/16 A3005 RMK A01 T01830163  RH  088%=      5-min Rain = 0
KJU1 241201Z 18005KT 18/16 A3005 RMK A01 T01840163  RH  088%=      5-min Rain = 0
KJU1 241202Z 19005KT 18/16 A3005 RMK A01 T01830163  RH  088%=      5-min Rain = 0
KJU1 241203Z 18004KT 18/16 A3005 RMK A01 T01830163  RH  088%=      5-min Rain = 0
KJU1 241204Z 18005KT 18/16 A3005 RMK A01 T01840163  RH  088%=      5-min Rain = 0
KJU1 241205Z 19008KT 18/16 A3005 RMK A01 T01830163  RH  088%=      5-min Rain = 0
KJU1 241206Z 18008KT 18/16 A3005 RMK A01 T01830163  RH  088%=      5-min Rain = 0
KJU1 241207Z 17005KT 18/16 A3005 RMK A01 T01830163  RH  088%=      5-min Rain = 0
KJU1 241208Z 18006KT 18/16 A3005 RMK A01 T01830162  RH  088%=      5-min Rain = 0
KJU1 241209Z 18006KT 18/16 A3005 RMK A01 T01830162  RH  088%=      5-min Rain = 0
KJU1 241210Z 18005KT 18/16 A3005 RMK A01 T01830162  RH  088%=      5-min Rain = 0
KJU1 241211Z 18007KT 18/16 A3005 RMK A01 T01840163  RH  088%=      5-min Rain = 0
KJU1 241212Z 19008KT 18/16 A3005 RMK A01 T01830163  RH  088%=      5-min Rain = 0
KJU1 241213Z 19010KT 18/16 A3005 RMK A01 T01830163  RH  088%=      5-min Rain = 0
KJU1 241214Z 19008KT 18/16 A3006 RMK A01 T01830163  RH  088%=      5-min Rain = 0
KJU1 241215Z 19008KT 18/16 A3006 RMK A01 T01840163  RH  088%=      5-min Rain = 0
KJU1 241216Z 19007KT 18/16 A3006 RMK A01 T01840163  RH  088%=      5-min Rain = 0
KJU1 241217Z 18007KT 18/16 A3006 RMK A01 T01840163  RH  088%=      5-min Rain = 0
KJU1 241218Z 18007KT 18/16 A3006 RMK A01 T01840163  RH  088%=      5-min Rain = 0
KJU1 241219Z 18006KT 18/16 A3006 RMK A01 T01830163  RH  088%=      5-min Rain = 0
KJU1 241220Z 19006KT 18/16 A3006 RMK A01 T01830163  RH  088%=      5-min Rain = 0
KJU1 241221Z 20006KT 18/16 A3006 RMK A01 T01830163  RH  088%=      5-min Rain = 0
KJU1 241222Z 19006KT 18/16 A3006 RMK A01 T01830163  RH  088%=      5-min Rain = 0
KJU1 241223Z 20006KT 18/16 A3006 RMK A01 T01830162  RH  088%=      5-min Rain = 0
KJU1 241224Z 20005KT 18/16 A3006 RMK A01 T01830162  RH  088%=      5-min Rain = 0
KJU1 241225Z 19005KT 18/16 A3006 RMK A01 T01830163  RH  088%=      5-min Rain = 0
KJU1 241226Z 19005KT 18/16 A3006 RMK A01 T01830163  RH  088%=      5-min Rain = 0
KJU1 241227Z 20004KT 18/16 A3006 RMK A01 T01840163  RH  088%=      5-min Rain = 0
KJU1 241228Z 19004KT 18/16 A3006 RMK A01 T01840164  RH  088%=      5-min Rain = 0
KJU1 241229Z 19006KT 18/16 A3006 RMK A01 T01830163  RH  088%=      5-min Rain = 0
KJU1 241230Z 19005KT 18/16 A3006 RMK A01 T01830163  RH  088%=      5-min Rain = 0
KJU1 241231Z 19005KT 18/16 A3006 RMK A01 T01840164  RH  088%=      5-min Rain = 0
KJU1 241232Z 19005KT 18/16 A3006 RMK A01 T01830163  RH  088%=      5-min Rain = 0
KJU1 241233Z 19005KT 18/16 A3006 RMK A01 T01830163  RH  088%=      5-min Rain = 0
KJU1 241234Z 19004KT 18/16 A3006 RMK A01 T01830163  RH  088%=      5-min Rain = 0
KJU1 241235Z 19003KT 18/16 A3006 RMK A01 T01830163  RH  088%=      5-min Rain = 0
KJU1 241236Z 18004KT 18/16 A3006 RMK A01 T01830164  RH  088%=      5-min Rain = 0
KJU1 241237Z 18005KT 18/16 A3007 RMK A01 T01830164  RH  088%=      5-min Rain = 0
KJU1 241238Z 19004KT 18/16 A3007 RMK A01 T01830163  RH  088%=      5-min Rain = 0
KJU1 241239Z 17003KT 18/16 A3007 RMK A01 T01830164  RH  088%=      5-min Rain = 0
KJU1 241240Z 19004KT 18/16 A3007 RMK A01 T01830164  RH  088%=      5-min Rain = 0
KJU1 241241Z 19004KT 18/16 A3007 RMK A01 T01830164  RH  089%=      5-min Rain = 0
KJU1 241242Z 18007KT 18/16 A3007 RMK A01 T01830163  RH  088%=      5-min Rain = 0
KJU1 241243Z 18005KT 18/16 A3007 RMK A01 T01820163  RH  088%=      5-min Rain = 0
KJU1 241244Z 19005KT 18/16 A3007 RMK A01 T01820163  RH  088%=      5-min Rain = 0
KJU1 241245Z 19006KT 18/16 A3007 RMK A01 T01830163  RH  088%=      5-min Rain = 0
KJU1 241246Z 18006KT 18/16 A3007 RMK A01 T01830163  RH  088%=      5-min Rain = 0
KJU1 241247Z 19007KT 18/16 A3007 RMK A01 T01830163  RH  088%=      5-min Rain = 0
KJU1 241248Z 18006KT 18/16 A3007 RMK A01 T01830163  RH  088%=      5-min Rain = 0
KJU1 241249Z 19005KT 18/16 A3007 RMK A01 T01830163  RH  088%=      5-min Rain = 0
KJU1 241250Z 19006KT 18/16 A3007 RMK A01 T01830163  RH  088%=      5-min Rain = 0
KJU1 241251Z 19005KT 18/16 A3007 RMK A01 T01830163  RH  088%=      5-min Rain = 0
KJU1 241252Z 19005KT 18/16 A3007 RMK A01 T01830163  RH  088%=      5-min Rain = 0
KJU1 241253Z 19005KT 18/16 A3007 RMK A01 T01830163  RH  088%=      5-min Rain = 0
KJU1 241254Z 19005KT 18/16 A3007 RMK A01 T01830163  RH  088%=      5-min Rain = 0
KJU1 241255Z 19006KT 18/16 A3007 RMK A01 T01840163  RH  088%=      5-min Rain = 0
KJU1 241256Z 20005KT 18/16 A3007 RMK A01 T01830163  RH  088%=      5-min Rain = 0
KJU1 241257Z 19006KT 18/16 A3007 RMK A01 T01830163  RH  088%=      5-min Rain = 0
KJU1 241258Z 20004KT 18/16 A3007 RMK A01 T01840163  RH  088%=      5-min Rain = 0
KJU1 241259Z 20003KT 18/16 A3007 RMK A01 T01840164  RH  088%=      5-min Rain = 0
KJU1 241300Z 20005KT 18/16 A3007 RMK A01 T01830164  RH  088%=      5-min Rain = 0
KJU1 241301Z 19004KT 18/16 A3007 RMK A01 T01830164  RH  088%=      5-min Rain = 0
KJU1 241302Z 19004KT 18/16 A3008 RMK A01 T01840164  RH  088%=      5-min Rain = 0
KJU1 241303Z 19005KT 18/16 A3008 RMK A01 T01830164  RH  088%=      5-min Rain = 0
KJU1 241304Z 19004KT 18/16 A3008 RMK A01 T01830163  RH  088%=      5-min Rain = 0
KJU1 241305Z 19004KT 18/16 A3008 RMK A01 T01840164  RH  088%=      5-min Rain = 0
KJU1 241306Z 19005KT 18/16 A3008 RMK A01 T01830163  RH  088%=      5-min Rain = 0
KJU1 241307Z 19005KT 18/16 A3008 RMK A01 T01840163  RH  088%=      5-min Rain = 0
KJU1 241308Z 19005KT 18/16 A3008 RMK A01 T01830163  RH  088%=      5-min Rain = 0
KJU1 241309Z 19005KT 18/16 A3008 RMK A01 T01830163  RH  088%=      5-min Rain = 0
KJU1 241310Z 19006KT 18/16 A3008 RMK A01 T01840163  RH  088%=      5-min Rain = 0
KJU1 241311Z 18006KT 18/16 A3008 RMK A01 T01830163  RH  088%=      5-min Rain = 0
KJU1 241312Z 18006KT 18/16 A3008 RMK A01 T01830163  RH  088%=      5-min Rain = 0
KJU1 241313Z 19005KT 18/16 A3008 RMK A01 T01840163  RH  088%=      5-min Rain = 0
KJU1 241314Z 19004KT 18/16 A3008 RMK A01 T01840163  RH  088%=      5-min Rain = 0
KJU1 241315Z 20005KT 18/16 A3008 RMK A01 T01840163  RH  088%=      5-min Rain = 0
KJU1 241316Z 18004KT 18/16 A3008 RMK A01 T01830163  RH  088%=      5-min Rain = 0
KJU1 241317Z 19005KT 18/16 A3008 RMK A01 T01840163  RH  088%=      5-min Rain = 0
KJU1 241318Z 19005KT 18/16 A3008 RMK A01 T01840163  RH  088%=      5-min Rain = 0
KJU1 241319Z 19006KT 18/16 A3008 RMK A01 T01840163  RH  088%=      5-min Rain = 0
KJU1 241320Z 19006KT 18/16 A3008 RMK A01 T01840163  RH  087%=      5-min Rain = 0
KJU1 241321Z 20006KT 18/16 A3008 RMK A01 T01840163  RH  087%=      5-min Rain = 0
KJU1 241322Z 19004KT 18/16 A3008 RMK A01 T01840163  RH  088%=      5-min Rain = 0
KJU1 241323Z 18006KT 18/16 A3008 RMK A01 T01840163  RH  088%=      5-min Rain = 0
KJU1 241324Z 18007KT 18/16 A3008 RMK A01 T01840163  RH  088%=      5-min Rain = 0
KJU1 241325Z 19005KT 18/16 A3008 RMK A01 T01840163  RH  088%=      5-min Rain = 0
KJU1 241326Z 19004KT 18/16 A3008 RMK A01 T01840163  RH  088%=      5-min Rain = 0
KJU1 241327Z 20005KT 18/16 A3008 RMK A01 T01840163  RH  088%=      5-min Rain = 0
KJU1 241328Z 20006KT 18/16 A3008 RMK A01 T01840163  RH  088%=      5-min Rain = 0
KJU1 241329Z 20006KT 18/16 A3008 RMK A01 T01840163  RH  088%=      5-min Rain = 0
KJU1 241330Z 20006KT 18/16 A3008 RMK A01 T01840163  RH  088%=      5-min Rain = 0
KJU1 241331Z 19007KT 18/16 A3008 RMK A01 T01840163  RH  087%=      5-min Rain = 0
KJU1 241332Z 19006KT 18/16 A3008 RMK A01 T01840163  RH  087%=      5-min Rain = 0
KJU1 241333Z 19006KT 18/16 A3008 RMK A01 T01840163  RH  087%=      5-min Rain = 0
KJU1 241334Z 20005KT 19/16 A3008 RMK A01 T01850163  RH  087%=      5-min Rain = 0
KJU1 241335Z 19005KT 18/16 A3008 RMK A01 T01840163  RH  087%=      5-min Rain = 0
KJU1 241336Z 19005KT 18/16 A3008 RMK A01 T01840163  RH  087%=      5-min Rain = 0
KJU1 241337Z 19006KT 19/16 A3008 RMK A01 T01850163  RH  087%=      5-min Rain = 0
KJU1 241338Z 18005KT 19/16 A3008 RMK A01 T01850163  RH  087%=      5-min Rain = 0
KJU1 241339Z 18004KT 19/16 A3008 RMK A01 T01850163  RH  087%=      5-min Rain = 0
KJU1 241340Z 19004KT 19/16 A3008 RMK A01 T01850163  RH  087%=      5-min Rain = 0
KJU1 241341Z 19004KT 19/16 A3008 RMK A01 T01850164  RH  087%=      5-min Rain = 0
KJU1 241342Z 18004KT 19/16 A3008 RMK A01 T01850164  RH  087%=      5-min Rain = 0
KJU1 241343Z 18005KT 19/16 A3008 RMK A01 T01850164  RH  087%=      5-min Rain = 0
KJU1 241344Z 18004KT 19/16 A3008 RMK A01 T01850163  RH  087%=      5-min Rain = 0
KJU1 241345Z 19005KT 19/16 A3008 RMK A01 T01860163  RH  087%=      5-min Rain = 0
KJU1 241346Z 19005KT 19/16 A3008 RMK A01 T01860163  RH  087%=      5-min Rain = 0
KJU1 241347Z 19006KT 19/16 A3008 RMK A01 T01860163  RH  086%=      5-min Rain = 0
KJU1 241348Z 19006KT 19/16 A3008 RMK A01 T01860163  RH  086%=      5-min Rain = 0
KJU1 241349Z 19005KT 19/16 A3008 RMK A01 T01860163  RH  086%=      5-min Rain = 0
KJU1 241350Z 19005KT 19/16 A3008 RMK A01 T01860163  RH  086%=      5-min Rain = 0
KJU1 241351Z 19005KT 19/16 A3008 RMK A01 T01870163  RH  086%=      5-min Rain = 0
KJU1 241352Z 19004KT 19/16 A3008 RMK A01 T01870163  RH  086%=      5-min Rain = 0
KJU1 241353Z 20004KT 19/16 A3008 RMK A01 T01870163  RH  086%=      5-min Rain = 0
KJU1 241354Z 19006KT 19/16 A3008 RMK A01 T01870163  RH  086%=      5-min Rain = 0
KJU1 241355Z 18006KT 19/16 A3008 RMK A01 T01870163  RH  086%=      5-min Rain = 0
KJU1 241356Z 19006KT 19/16 A3008 RMK A01 T01870162  RH  086%=      5-min Rain = 0
KJU1 241357Z 19007KT 19/16 A3008 RMK A01 T01870162  RH  085%=      5-min Rain = 0
KJU1 241358Z 19008KT 19/16 A3008 RMK A01 T01880162  RH  085%=      5-min Rain = 0
KJU1 241359Z 19007KT 19/16 A3009 RMK A01 T01880162  RH  085%=      5-min Rain = 0
KJU1 241400Z 18008KT 19/16 A3009 RMK A01 T01880162  RH  085%=      5-min Rain = 0
KJU1 241401Z 19007KT 19/16 A3009 RMK A01 T01880162  RH  085%=      5-min Rain = 0
KJU1 241402Z 20005KT 19/16 A3009 RMK A01 T01880163  RH  085%=      5-min Rain = 0
KJU1 241403Z 20005KT 19/16 A3009 RMK A01 T01880163  RH  085%=      5-min Rain = 0
KJU1 241404Z 20005KT 19/16 A3009 RMK A01 T01880162  RH  085%=      5-min Rain = 0
KJU1 241405Z 19007KT 19/16 A3009 RMK A01 T01890163  RH  085%=      5-min Rain = 0
KJU1 241406Z 19008KT 19/16 A3009 RMK A01 T01880162  RH  085%=      5-min Rain = 0
KJU1 241407Z 19007KT 19/16 A3009 RMK A01 T01890162  RH  084%=      5-min Rain = 0
KJU1 241408Z 18009KT 19/16 A3009 RMK A01 T01890162  RH  084%=      5-min Rain = 0
KJU1 241409Z 18009KT 19/16 A3009 RMK A01 T01890162  RH  084%=      5-min Rain = 0
KJU1 241410Z 20009KT 19/16 A3009 RMK A01 T01890162  RH  084%=      5-min Rain = 0
KJU1 241411Z 20008KT 19/16 A3009 RMK A01 T01890162  RH  084%=      5-min Rain = 0
KJU1 241412Z 19006KT 19/16 A3009 RMK A01 T01890162  RH  084%=      5-min Rain = 0
KJU1 241413Z 19008KT 19/16 A3009 RMK A01 T01890162  RH  084%=      5-min Rain = 0
KJU1 241414Z 18008KT 19/16 A3009 RMK A01 T01890162  RH  084%=      5-min Rain = 0
KJU1 241415Z 19008KT 19/16 A3009 RMK A01 T01890162  RH  084%=      5-min Rain = 0
KJU1 241416Z 18008KT 19/16 A3009 RMK A01 T01890161  RH  084%=      5-min Rain = 0
KJU1 241417Z 20007KT 19/16 A3009 RMK A01 T01890162  RH  084%=      5-min Rain = 0
KJU1 241418Z 20006KT 19/16 A3009 RMK A01 T01890162  RH  084%=      5-min Rain = 0
KJU1 241419Z 19008KT 19/16 A3009 RMK A01 T01900162  RH  084%=      5-min Rain = 0
KJU1 241420Z 20007KT 19/16 A3009 RMK A01 T01900162  RH  084%=      5-min Rain = 0
KJU1 241421Z 19009KT 19/16 A3009 RMK A01 T01900162  RH  084%=      5-min Rain = 0
KJU1 241422Z 20007KT 19/16 A3009 RMK A01 T01900162  RH  083%=      5-min Rain = 0
KJU1 241423Z 20006KT 19/16 A301 RMK A01 T01900162  RH  084%=      5-min Rain = 0
KJU1 241424Z 20007KT 19/16 A301 RMK A01 T01910162  RH  084%=      5-min Rain = 0
KJU1 241425Z 19008KT 19/16 A301 RMK A01 T01910163  RH  084%=      5-min Rain = 0
KJU1 241426Z 20008KT 19/16 A301 RMK A01 T01910162  RH  083%=      5-min Rain = 0
KJU1 241427Z 19006KT 19/16 A301 RMK A01 T01910162  RH  083%=      5-min Rain = 0
KJU1 241428Z 20007KT 19/16 A301 RMK A01 T01910162  RH  083%=      5-min Rain = 0
KJU1 241429Z 20009KT 19/16 A301 RMK A01 T01910162  RH  083%=      5-min Rain = 0
KJU1 241430Z 20008KT 19/16 A301 RMK A01 T01910161  RH  083%=      5-min Rain = 0
KJU1 241431Z 20009KT 19/16 A301 RMK A01 T01910161  RH  083%=      5-min Rain = 0
KJU1 241432Z 20008KT 19/16 A301 RMK A01 T01910161  RH  083%=      5-min Rain = 0
KJU1 241433Z 18009KT 19/16 A301 RMK A01 T01910160  RH  082%=      5-min Rain = 0
KJU1 241434Z 20007KT 19/16 A301 RMK A01 T01910160  RH  082%=      5-min Rain = 0
KJU1 241435Z 21007KT 19/16 A301 RMK A01 T01910160  RH  082%=      5-min Rain = 0
KJU1 241436Z 19007KT 19/16 A301 RMK A01 T01910160  RH  082%=      5-min Rain = 0
KJU1 241437Z 19007KT 19/16 A301 RMK A01 T01910160  RH  082%=      5-min Rain = 0
KJU1 241438Z 21009KT 19/16 A301 RMK A01 T01920161  RH  082%=      5-min Rain = 0
KJU1 241439Z 20006KT 19/16 A301 RMK A01 T01920160  RH  082%=      5-min Rain = 0
KJU1 241440Z 19007KT 19/16 A301 RMK A01 T01920160  RH  082%=      5-min Rain = 0
KJU1 241441Z 19008KT 19/16 A301 RMK A01 T01920161  RH  082%=      5-min Rain = 0
KJU1 241442Z 19009KT 19/16 A301 RMK A01 T01920160  RH  081%=      5-min Rain = 0
KJU1 241443Z 19011KT 19/16 A301 RMK A01 T01920160  RH  082%=      5-min Rain = 0
KJU1 241444Z 19010KT 19/16 A301 RMK A01 T01920160  RH  081%=      5-min Rain = 0
KJU1 241445Z 19008KT 19/16 A301 RMK A01 T01920160  RH  081%=      5-min Rain = 0
KJU1 241446Z 19008KT 19/16 A301 RMK A01 T01920160  RH  082%=      5-min Rain = 0
KJU1 241447Z 20006KT 19/16 A301 RMK A01 T01920160  RH  082%=      5-min Rain = 0
KJU1 241448Z 19006KT 19/16 A301 RMK A01 T01920162  RH  082%=      5-min Rain = 0
KJU1 241449Z 19006KT 19/16 A301 RMK A01 T01930162  RH  082%=      5-min Rain = 0
KJU1 241450Z 19005KT 19/16 A301 RMK A01 T01930162  RH  082%=      5-min Rain = 0
KJU1 241451Z 18007KT 19/16 A3011 RMK A01 T01930161  RH  082%=      5-min Rain = 0
KJU1 241452Z 19006KT 19/16 A3011 RMK A01 T01940162  RH  082%=      5-min Rain = 0
KJU1 241453Z 20007KT 19/16 A3011 RMK A01 T01940162  RH  082%=      5-min Rain = 0
KJU1 241454Z 19006KT 19/16 A3011 RMK A01 T01940161  RH  081%=      5-min Rain = 0
KJU1 241455Z 20006KT 19/16 A3011 RMK A01 T01940162  RH  082%=      5-min Rain = 0
KJU1 241456Z 19009KT 19/16 A3011 RMK A01 T01930161  RH  081%=      5-min Rain = 0
KJU1 241457Z 18008KT 19/16 A3011 RMK A01 T01930161  RH  081%=      5-min Rain = 0
KJU1 241458Z 19007KT 19/16 A3011 RMK A01 T01930161  RH  082%=      5-min Rain = 0
KJU1 241459Z 19007KT 19/16 A3011 RMK A01 T01930162  RH  082%=      5-min Rain = 0
KJU1 241500Z 19007KT 19/16 A3011 RMK A01 T01930162  RH  082%=      5-min Rain = 0
KJU1 241501Z 20010KT 19/16 A3011 RMK A01 T01930162  RH  082%=      5-min Rain = 0
KJU1 241502Z 21008KT 19/16 A3011 RMK A01 T01920160  RH  082%=      5-min Rain = 0
KJU1 241503Z 19009KT 19/16 A3011 RMK A01 T01920160  RH  081%=      5-min Rain = 0
KJU1 241504Z 19009KT 19/16 A3011 RMK A01 T01920161  RH  082%=      5-min Rain = 0
KJU1 241505Z 20007KT 19/16 A3011 RMK A01 T01930160  RH  081%=      5-min Rain = 0
KJU1 241506Z 20009KT 19/16 A3011 RMK A01 T01930160  RH  081%=      5-min Rain = 0
KJU1 241507Z 20011KT 19/16 A3011 RMK A01 T01930160  RH  081%=      5-min Rain = 0
KJU1 241508Z 20010KT 19/16 A3011 RMK A01 T01930159  RH  081%=      5-min Rain = 0
KJU1 241509Z 20008KT 19/16 A3011 RMK A01 T01930159  RH  081%=      5-min Rain = 0
KJU1 241510Z 20007G12KT 19/16 A3011 RMK A01 T01930160  RH  081%=      5-min Rain = 0
KJU1 241511Z 20008KT 19/16 A3011 RMK A01 T01930161  RH  082%=      5-min Rain = 0
KJU1 241512Z 21010KT 19/16 A3011 RMK A01 T01930161  RH  081%=      5-min Rain = 0
KJU1 241513Z 21008KT 19/16 A3011 RMK A01 T01930160  RH  081%=      5-min Rain = 0
KJU1 241514Z 21008KT 19/16 A3011 RMK A01 T01930161  RH  081%=      5-min Rain = 0
KJU1 241515Z 21009KT 19/16 A3011 RMK A01 T01930160  RH  081%=      5-min Rain = 0
KJU1 241516Z 22009KT 19/16 A3011 RMK A01 T01930160  RH  081%=      5-min Rain = 0
KJU1 241517Z 21007KT 19/16 A3011 RMK A01 T01930160  RH  081%=      5-min Rain = 0
KJU1 241518Z 20007KT 19/16 A3011 RMK A01 T01920161  RH  082%=      5-min Rain = 0
KJU1 241519Z 21008KT 19/16 A3011 RMK A01 T01930161  RH  082%=      5-min Rain = 0
KJU1 241520Z 21005KT 19/16 A3011 RMK A01 T01930161  RH  082%=      5-min Rain = 0
KJU1 241521Z 20006KT 19/16 A3011 RMK A01 T01930162  RH  082%=      5-min Rain = 0
KJU1 241522Z 20007KT 19/16 A3011 RMK A01 T01930161  RH  081%=      5-min Rain = 0
KJU1 241523Z 20006KT 19/16 A3011 RMK A01 T01940161  RH  081%=      5-min Rain = 0
KJU1 241524Z 20006KT 19/16 A3011 RMK A01 T01940161  RH  081%=      5-min Rain = 0
KJU1 241525Z 20007KT 19/16 A3011 RMK A01 T01940162  RH  082%=      5-min Rain = 0
KJU1 241526Z 21007KT 20/16 A3011 RMK A01 T01950162  RH  081%=      5-min Rain = 0
KJU1 241527Z 20006KT 20/16 A3011 RMK A01 T01950162  RH  081%=      5-min Rain = 0
KJU1 241528Z 20007KT 20/16 A3011 RMK A01 T01950162  RH  081%=      5-min Rain = 0
KJU1 241529Z 19008KT 20/16 A3011 RMK A01 T01950162  RH  081%=      5-min Rain = 0
KJU1 241530Z 22007KT 20/16 A3011 RMK A01 T01950162  RH  081%=      5-min Rain = 0
KJU1 241531Z 20008KT 20/16 A3011 RMK A01 T01950161  RH  081%=      5-min Rain = 0
KJU1 241532Z 21009KT 20/16 A3011 RMK A01 T01950161  RH  081%=      5-min Rain = 0
KJU1 241533Z 20007KT 19/16 A3011 RMK A01 T01940161  RH  081%=      5-min Rain = 0
KJU1 241534Z 19006KT 20/16 A3011 RMK A01 T01950163  RH  082%=      5-min Rain = 0
KJU1 241535Z 19007KT 20/16 A3011 RMK A01 T01950163  RH  082%=      5-min Rain = 0
KJU1 241536Z 20006KT 20/16 A3011 RMK A01 T01950164  RH  082%=      5-min Rain = 0
KJU1 241537Z 19007KT 20/16 A3011 RMK A01 T01960162  RH  081%=      5-min Rain = 0
KJU1 241538Z 20010KT 20/16 A3011 RMK A01 T01960162  RH  081%=      5-min Rain = 0
KJU1 241539Z 21009KT 20/16 A3011 RMK A01 T01960162  RH  081%=      5-min Rain = 0
KJU1 241540Z 21007KT 20/16 A3011 RMK A01 T01960162  RH  081%=      5-min Rain = 0
KJU1 241541Z 20006KT 20/16 A3012 RMK A01 T01960162  RH  081%=      5-min Rain = 0
KJU1 241542Z 21005KT 20/16 A3012 RMK A01 T01960162  RH  081%=      5-min Rain = 0
KJU1 241543Z 21005KT 20/16 A3012 RMK A01 T01960163  RH  081%=      5-min Rain = 0
KJU1 241544Z 19006KT 20/16 A3012 RMK A01 T01970163  RH  081%=      5-min Rain = 0
KJU1 241545Z 21009KT 20/16 A3012 RMK A01 T01970163  RH  081%=      5-min Rain = 0
KJU1 241546Z 20009KT 20/16 A3012 RMK A01 T01970162  RH  080%=      5-min Rain = 0
KJU1 241547Z 21011KT 20/16 A3012 RMK A01 T01970162  RH  080%=      5-min Rain = 0
KJU1 241548Z 20010KT 20/16 A3012 RMK A01 T01960161  RH  080%=      5-min Rain = 0
KJU1 241549Z 20010KT 20/16 A3012 RMK A01 T01960161  RH  080%=      5-min Rain = 0
KJU1 241550Z 21009KT 20/16 A3012 RMK A01 T01960161  RH  080%=      5-min Rain = 0
KJU1 241551Z 20008KT 20/16 A3012 RMK A01 T01960161  RH  081%=      5-min Rain = 0
KJU1 241552Z 21009KT 20/16 A3012 RMK A01 T01960162  RH  081%=      5-min Rain = 0
KJU1 241553Z 20007KT 20/16 A3012 RMK A01 T01960162  RH  081%=      5-min Rain = 0
KJU1 241554Z 21007KT 20/16 A3012 RMK A01 T01960162  RH  080%=      5-min Rain = 0
KJU1 241555Z 20009KT 20/16 A3012 RMK A01 T01960161  RH  080%=      5-min Rain = 0
KJU1 241556Z 20007KT 20/16 A3012 RMK A01 T01960161  RH  080%=      5-min Rain = 0
KJU1 241557Z 20007KT 20/16 A3012 RMK A01 T01970162  RH  081%=      5-min Rain = 0
KJU1 241558Z 20007KT 20/16 A3012 RMK A01 T01970162  RH  080%=      5-min Rain = 0
KJU1 241559Z 22009KT 20/16 A3012 RMK A01 T01980161  RH  080%=      5-min Rain = 0
KJU1 241600Z 20005KT 20/16 A3012 RMK A01 T01980160  RH  079%=      5-min Rain = 0
KJU1 241601Z 20008KT 20/16 A3012 RMK A01 T01980162  RH  080%=      5-min Rain = 0
KJU1 241602Z 20006KT 20/16 A3012 RMK A01 T01990162  RH  079%=      5-min Rain = 0
KJU1 241603Z 19006KT 20/16 A3012 RMK A01 T01990164  RH  080%=      5-min Rain = 0
KJU1 241604Z 20010KT 20/16 A3012 RMK A01 T02000163  RH  079%=      5-min Rain = 0
KJU1 241605Z 20010KT 20/16 A3012 RMK A01 T02000162  RH  079%=      5-min Rain = 0
KJU1 241606Z 21011KT 20/16 A3012 RMK A01 T02000162  RH  079%=      5-min Rain = 0
KJU1 241607Z 21008KT 20/16 A3012 RMK A01 T02000162  RH  079%=      5-min Rain = 0
KJU1 241608Z 20007KT 20/16 A3012 RMK A01 T01990163  RH  079%=      5-min Rain = 0
KJU1 241609Z 20010KT 20/16 A3012 RMK A01 T02000163  RH  079%=      5-min Rain = 0
KJU1 241610Z 19008KT 20/16 A3012 RMK A01 T02000163  RH  079%=      5-min Rain = 0
KJU1 241611Z 18008KT 20/16 A3012 RMK A01 T02000164  RH  080%=      5-min Rain = 0
KJU1 241612Z 19007KT 20/16 A3012 RMK A01 T02010164  RH  079%=      5-min Rain = 0
KJU1 241613Z 20008KT 20/16 A3012 RMK A01 T02010163  RH  079%=      5-min Rain = 0
KJU1 241614Z 19007KT 20/17 A3012 RMK A01 T02030165  RH  079%=      5-min Rain = 0
KJU1 241615Z 20008KT 20/16 A3012 RMK A01 T02040164  RH  078%=      5-min Rain = 0
KJU1 241616Z 20007KT 21/16 A3012 RMK A01 T02050164  RH  078%=      5-min Rain = 0
KJU1 241617Z 21007KT 21/17 A3012 RMK A01 T02050165  RH  077%=      5-min Rain = 0
KJU1 241618Z 20006KT 21/17 A3012 RMK A01 T02060165  RH  077%=      5-min Rain = 0
KJU1 241619Z 20007KT 21/16 A3012 RMK A01 T02060163  RH  076%=      5-min Rain = 0
KJU1 241620Z 20005KT 21/17 A3012 RMK A01 T02060165  RH  077%=      5-min Rain = 0
KJU1 241621Z 21007KT 21/17 A3012 RMK A01 T02060166  RH  078%=      5-min Rain = 0
KJU1 241622Z 20008KT 21/16 A3012 RMK A01 T02060164  RH  077%=      5-min Rain = 0
KJU1 241623Z 18009KT 21/16 A3012 RMK A01 T02060163  RH  077%=      5-min Rain = 0
KJU1 241624Z 20007KT 21/16 A3012 RMK A01 T02050164  RH  077%=      5-min Rain = 0
KJU1 241625Z 20010KT 21/16 A3012 RMK A01 T02060164  RH  077%=      5-min Rain = 0
KJU1 241626Z 21008KT 21/16 A3012 RMK A01 T02060163  RH  077%=      5-min Rain = 0
KJU1 241627Z 21010KT 21/16 A3012 RMK A01 T02060164  RH  077%=      5-min Rain = 0
KJU1 241628Z 21008KT 21/16 A3012 RMK A01 T02060163  RH  077%=      5-min Rain = 0
KJU1 241629Z 21009KT 21/16 A3012 RMK A01 T02060163  RH  076%=      5-min Rain = 0
KJU1 241630Z 21010KT 21/16 A3012 RMK A01 T02050162  RH  076%=      5-min Rain = 0
KJU1 241631Z 21009KT 20/16 A3012 RMK A01 T02040161  RH  076%=      5-min Rain = 0
KJU1 241632Z 21009KT 20/16 A3012 RMK A01 T02040162  RH  076%=      5-min Rain = 0
KJU1 241633Z 20007KT 21/16 A3012 RMK A01 T02050162  RH  077%=      5-min Rain = 0
KJU1 241634Z 20008KT 21/16 A3012 RMK A01 T02050163  RH  077%=      5-min Rain = 0
KJU1 241635Z 20008KT 21/16 A3012 RMK A01 T02060163  RH  077%=      5-min Rain = 0
KJU1 241636Z 19005KT 21/17 A3012 RMK A01 T02070166  RH  078%=      5-min Rain = 0
KJU1 241637Z 19007KT 21/17 A3012 RMK A01 T02080168  RH  078%=      5-min Rain = 0
KJU1 241638Z 19008KT 21/17 A3012 RMK A01 T02090165  RH  076%=      5-min Rain = 0
KJU1 241639Z 19009KT 21/17 A3012 RMK A01 T02090165  RH  076%=      5-min Rain = 0
KJU1 241640Z 19007KT 21/17 A3012 RMK A01 T02090165  RH  076%=      5-min Rain = 0
KJU1 241641Z 21006KT 21/17 A3012 RMK A01 T02090167  RH  077%=      5-min Rain = 0
KJU1 241642Z 21006KT 21/17 A3012 RMK A01 T02100167  RH  076%=      5-min Rain = 0
KJU1 241643Z 20009KT 21/17 A3012 RMK A01 T02100166  RH  075%=      5-min Rain = 0
KJU1 241644Z 22009KT 21/16 A3012 RMK A01 T02100164  RH  075%=      5-min Rain = 0
KJU1 241645Z 22009KT 21/16 A3012 RMK A01 T02090163  RH  075%=      5-min Rain = 0
KJU1 241646Z 21007KT 21/16 A3012 RMK A01 T02090163  RH  075%=      5-min Rain = 0
KJU1 241647Z 20007KT 21/16 A3012 RMK A01 T02090164  RH  076%=      5-min Rain = 0
KJU1 241648Z 20007KT 21/17 A3011 RMK A01 T02090165  RH  076%=      5-min Rain = 0
KJU1 241649Z 20008KT 21/16 A3011 RMK A01 T02090163  RH  075%=      5-min Rain = 0
KJU1 241650Z 19009KT 21/16 A3011 RMK A01 T02090164  RH  075%=      5-min Rain = 0
KJU1 241651Z 19009KT 21/17 A3011 RMK A01 T02090165  RH  076%=      5-min Rain = 0
KJU1 241652Z 20008KT 21/17 A3011 RMK A01 T02090165  RH  076%=      5-min Rain = 0
KJU1 241653Z 20007KT 21/16 A3011 RMK A01 T02090164  RH  076%=      5-min Rain = 0
KJU1 241654Z 18009KT 21/17 A3011 RMK A01 T02080166  RH  076%=      5-min Rain = 0
KJU1 241655Z 18010KT 21/17 A3011 RMK A01 T02090165  RH  076%=      5-min Rain = 0
KJU1 241656Z 19009KT 21/17 A3011 RMK A01 T02100165  RH  076%=      5-min Rain = 0
KJU1 241657Z 21007KT 21/16 A3011 RMK A01 T02100164  RH  075%=      5-min Rain = 0
KJU1 241658Z 20007KT 21/16 A3011 RMK A01 T02100164  RH  075%=      5-min Rain = 0
KJU1 241659Z 20007KT 21/16 A3011 RMK A01 T02100164  RH  075%=      5-min Rain = 0
KJU1 241700Z 20006KT 21/17 A3011 RMK A01 T02110167  RH  076%=      5-min Rain = 0
KJU1 241701Z 20006KT 21/17 A3011 RMK A01 T02120167  RH  076%=      5-min Rain = 0
KJU1 241702Z 20011KT 21/17 A3011 RMK A01 T02130167  RH  075%=      5-min Rain = 0
KJU1 241703Z 21010KT 21/17 A3011 RMK A01 T02130165  RH  074%=      5-min Rain = 0
KJU1 241704Z 19009KT 21/16 A3011 RMK A01 T02120164  RH  074%=      5-min Rain = 0
KJU1 241705Z 20009KT 21/16 A3011 RMK A01 T02120164  RH  074%=      5-min Rain = 0
KJU1 241706Z 19008KT 21/16 A3011 RMK A01 T02120163  RH  074%=      5-min Rain = 0
KJU1 241707Z 20007KT 21/17 A3011 RMK A01 T02120166  RH  075%=      5-min Rain = 0
KJU1 241708Z 18008KT 21/17 A3011 RMK A01 T02120166  RH  075%=      5-min Rain = 0
KJU1 241709Z 20008KT 21/17 A3011 RMK A01 T02130168  RH  075%=      5-min Rain = 0
KJU1 241710Z 19009KT 21/17 A3011 RMK A01 T02130165  RH  074%=      5-min Rain = 0
KJU1 241711Z 18009KT 21/17 A3011 RMK A01 T02140166  RH  074%=      5-min Rain = 0
KJU1 241712Z 19010KT 22/17 A3011 RMK A01 T02150167  RH  074%=      5-min Rain = 0
KJU1 241713Z 19010KT 22/17 A3011 RMK A01 T02150167  RH  074%=      5-min Rain = 0
KJU1 241714Z 19010KT 22/17 A3011 RMK A01 T02150167  RH  074%=      5-min Rain = 0
KJU1 241715Z 19011KT 22/17 A3011 RMK A01 T02150165  RH  073%=      5-min Rain = 0
KJU1 241716Z 20010KT 21/16 A3011 RMK A01 T02140164  RH  073%=      5-min Rain = 0
KJU1 241717Z 20009KT 21/16 A3011 RMK A01 T02130163  RH  073%=      5-min Rain = 0
KJU1 241718Z 20008KT 21/17 A3011 RMK A01 T02140166  RH  074%=      5-min Rain = 0
KJU1 241719Z 19009KT 21/17 A3011 RMK A01 T02140165  RH  074%=      5-min Rain = 0
KJU1 241720Z 19009KT 21/17 A3011 RMK A01 T02140166  RH  074%=      5-min Rain = 0
KJU1 241721Z 20009KT 22/17 A3011 RMK A01 T02150166  RH  074%=      5-min Rain = 0
KJU1 241722Z 21008KT 21/17 A3011 RMK A01 T02140165  RH  073%=      5-min Rain = 0
KJU1 241723Z 23009KT 22/17 A3011 RMK A01 T02150165  RH  073%=      5-min Rain = 0
KJU1 241724Z 21008KT 22/17 A3011 RMK A01 T02150165  RH  073%=      5-min Rain = 0
KJU1 241725Z 21009KT 22/17 A3011 RMK A01 T02160166  RH  073%=      5-min Rain = 0
KJU1 241726Z 21009KT 22/17 A3011 RMK A01 T02170165  RH  072%=      5-min Rain = 0
KJU1 241727Z 19008KT 22/17 A3011 RMK A01 T02170165  RH  072%=      5-min Rain = 0
KJU1 241728Z 20006KT 22/17 A3011 RMK A01 T02180167  RH  073%=      5-min Rain = 0
KJU1 241729Z 23004G9KT 22/17 A3011 RMK A01 T02180167  RH  073%=      5-min Rain = 0
KJU1 241730Z 24008KT 22/17 A3011 RMK A01 T02180165  RH  072%=      5-min Rain = 0
KJU1 241731Z 22007G12KT 22/16 A3011 RMK A01 T02180163  RH  071%=      5-min Rain = 0
KJU1 241732Z 20008KT 22/16 A3011 RMK A01 T02180164  RH  071%=      5-min Rain = 0
KJU1 241733Z 20008KT 22/16 A301 RMK A01 T02180164  RH  071%=      5-min Rain = 0
KJU1 241734Z 20011KT 22/17 A301 RMK A01 T02180165  RH  071%=      5-min Rain = 0
KJU1 241735Z 21009KT 22/17 A301 RMK A01 T02180166  RH  072%=      5-min Rain = 0
KJU1 241736Z 22007KT 22/17 A301 RMK A01 T02180166  RH  072%=      5-min Rain = 0
KJU1 241737Z 22006KT 22/17 A301 RMK A01 T02180166  RH  072%=      5-min Rain = 0
KJU1 241738Z 23009KT 22/17 A301 RMK A01 T02190167  RH  072%=      5-min Rain = 0
KJU1 241739Z 22008KT 22/17 A301 RMK A01 T02200168  RH  072%=      5-min Rain = 0
KJU1 241740Z 21009KT 22/17 A301 RMK A01 T02220169  RH  072%=      5-min Rain = 0
KJU1 241741Z 20009KT 22/17 A301 RMK A01 T02220165  RH  070%=      5-min Rain = 0
KJU1 241742Z 21009KT 22/17 A301 RMK A01 T02210165  RH  070%=      5-min Rain = 0
KJU1 241743Z 21007KT 22/16 A301 RMK A01 T02210164  RH  070%=      5-min Rain = 0
KJU1 241744Z 20010KT 22/16 A301 RMK A01 T02200164  RH  071%=      5-min Rain = 0
KJU1 241745Z 22009KT 22/17 A301 RMK A01 T02200165  RH  071%=      5-min Rain = 0
KJU1 241746Z 22008KT 22/17 A301 RMK A01 T02200165  RH  071%=      5-min Rain = 0
KJU1 241747Z 22006KT 22/17 A301 RMK A01 T02200166  RH  071%=      5-min Rain = 0
KJU1 241748Z 23010KT 22/17 A301 RMK A01 T02210167  RH  071%=      5-min Rain = 0
KJU1 241749Z 24010KT 22/17 A301 RMK A01 T02220166  RH  070%=      5-min Rain = 0
KJU1 241750Z 22008KT 22/17 A301 RMK A01 T02220166  RH  070%=      5-min Rain = 0
KJU1 241751Z 22008KT 22/17 A301 RMK A01 T02220167  RH  071%=      5-min Rain = 0
KJU1 241752Z 22007KT 22/17 A301 RMK A01 T02220167  RH  071%=      5-min Rain = 0
KJU1 241753Z 23008KT 22/17 A301 RMK A01 T02220166  RH  071%=      5-min Rain = 0
KJU1 241754Z 23008KT 22/17 A301 RMK A01 T02230166  RH  070%=      5-min Rain = 0
KJU1 241755Z 22006KT 22/17 A301 RMK A01 T02240168  RH  071%=      5-min Rain = 0
KJU1 241756Z 22008KT 23/17 A301 RMK A01 T02260170  RH  071%=      5-min Rain = 0
KJU1 241757Z 23007KT 23/17 A301 RMK A01 T02280167  RH  069%=      5-min Rain = 0
KJU1 241758Z 22007KT 23/17 A301 RMK A01 T02270167  RH  068%=      5-min Rain = 0
KJU1 241759Z 22007KT 23/17 A301 RMK A01 T02280170  RH  070%=      5-min Rain = 0
KJU1 241800Z 21006KT 23/17 A301 RMK A01 T02280167  RH  069%=      5-min Rain = 0
KJU1 241801Z 22004KT 23/17 A301 RMK A01 T02280171  RH  070%=      5-min Rain = 0
KJU1 241802Z 20003KT 23/17 A301 RMK A01 T02300173  RH  070%=      5-min Rain = 0
KJU1 241803Z 21006KT 23/18 A301 RMK A01 T02320175  RH  070%=      5-min Rain = 0
KJU1 241804Z 20009KT 23/17 A301 RMK A01 T02330170  RH  068%=      5-min Rain = 0
KJU1 241805Z 22009KT 23/17 A301 RMK A01 T02330170  RH  068%=      5-min Rain = 0
KJU1 241806Z 23008KT 23/17 A301 RMK A01 T02320168  RH  067%=      5-min Rain = 0
KJU1 241807Z 20007KT 23/17 A301 RMK A01 T02320173  RH  069%=      5-min Rain = 0
KJU1 241808Z 20008KT 23/17 A301 RMK A01 T02340171  RH  068%=      5-min Rain = 0
KJU1 241809Z 20007KT 23/17 A301 RMK A01 T02330171  RH  068%=      5-min Rain = 0
KJU1 241810Z 21008KT 23/17 A301 RMK A01 T02320170  RH  068%=      5-min Rain = 0
KJU1 241811Z 18009KT 23/17 A301 RMK A01 T02320169  RH  068%=      5-min Rain = 0
KJU1 241812Z 20007KT 23/17 A301 RMK A01 T02310168  RH  068%=      5-min Rain = 0
KJU1 241813Z 22009KT 23/17 A3009 RMK A01 T02310169  RH  068%=      5-min Rain = 0
KJU1 241814Z 20009KT 23/17 A3009 RMK A01 T02330168  RH  067%=      5-min Rain = 0
KJU1 241815Z 22012KT 24/17 A3009 RMK A01 T02360170  RH  067%=      5-min Rain = 0
KJU1 241816Z 22009KT 24/17 A3009 RMK A01 T02360168  RH  066%=      5-min Rain = 0
KJU1 241817Z 21011KT 24/17 A3009 RMK A01 T02360168  RH  066%=      5-min Rain = 0
KJU1 241818Z 20011KT 24/17 A3009 RMK A01 T02350170  RH  067%=      5-min Rain = 0
KJU1 241819Z 21010KT 24/17 A3009 RMK A01 T02350170  RH  067%=      5-min Rain = 0
KJU1 241820Z 20009KT 24/17 A3009 RMK A01 T02360169  RH  066%=      5-min Rain = 0
KJU1 241821Z 19009KT 24/17 A3009 RMK A01 T02360170  RH  067%=      5-min Rain = 0
KJU1 241822Z 19006KT 24/17 A3009 RMK A01 T02360172  RH  067%=      5-min Rain = 0
KJU1 241823Z 18006KT 24/17 A3009 RMK A01 T02370171  RH  067%=      5-min Rain = 0
KJU1 241824Z 17007KT 24/17 A3009 RMK A01 T02380172  RH  066%=      5-min Rain = 0
KJU1 241825Z 20008G14KT 24/18 A3009 RMK A01 T02420180  RH  068%=      5-min Rain = 0
KJU1 241826Z 18011KT 24/17 A3009 RMK A01 T02440171  RH  064%=      5-min Rain = 0
KJU1 241827Z 19009KT 24/17 A3008 RMK A01 T02410169  RH  064%=      5-min Rain = 0
KJU1 241828Z 19008KT 24/17 A3008 RMK A01 T02390172  RH  066%=      5-min Rain = 0
KJU1 241829Z 20006KT 24/17 A3008 RMK A01 T02400174  RH  067%=      5-min Rain = 0
KJU1 241830Z 20008KT 24/17 A3008 RMK A01 T02400171  RH  065%=      5-min Rain = 0
KJU1 241831Z 19008KT 24/17 A3008 RMK A01 T02390168  RH  064%=      5-min Rain = 0
KJU1 241832Z 19006KT 24/17 A3008 RMK A01 T02370168  RH  065%=      5-min Rain = 0
KJU1 241833Z 22008KT 24/17 A3008 RMK A01 T02350170  RH  067%=      5-min Rain = 0
KJU1 241834Z 21005KT 24/17 A3008 RMK A01 T02350167  RH  065%=      5-min Rain = 0
KJU1 241835Z 20007KT 23/17 A3008 RMK A01 T02340167  RH  066%=      5-min Rain = 0
KJU1 241836Z 20009KT 24/17 A3008 RMK A01 T02350170  RH  067%=      5-min Rain = 0
KJU1 241837Z 20009KT 24/17 A3008 RMK A01 T02350167  RH  065%=      5-min Rain = 0
KJU1 241838Z 19009KT 23/17 A3008 RMK A01 T02340167  RH  066%=      5-min Rain = 0
KJU1 241839Z 19007KT 23/17 A3008 RMK A01 T02340168  RH  066%=      5-min Rain = 0
KJU1 241840Z 23006KT 24/17 A3008 RMK A01 T02360168  RH  065%=      5-min Rain = 0
KJU1 241841Z 23006KT 24/17 A3008 RMK A01 T02380171  RH  066%=      5-min Rain = 0
KJU1 241842Z 23008KT 24/17 A3007 RMK A01 T02380168  RH  065%=      5-min Rain = 0
KJU1 241843Z 21010KT 24/17 A3007 RMK A01 T02400168  RH  064%=      5-min Rain = 0
KJU1 241844Z 22008KT 24/17 A3007 RMK A01 T02410167  RH  063%=      5-min Rain = 0
KJU1 241845Z 24007KT 24/17 A3007 RMK A01 T02420172  RH  065%=      5-min Rain = 0
KJU1 241846Z 22007KT 24/17 A3007 RMK A01 T02440169  RH  063%=      5-min Rain = 0
KJU1 241847Z 21008KT 25/17 A3007 RMK A01 T02450171  RH  063%=      5-min Rain = 0
KJU1 241848Z 21008KT 24/17 A3007 RMK A01 T02440167  RH  062%=      5-min Rain = 0
KJU1 241849Z 23004KT 24/17 A3007 RMK A01 T02400166  RH  063%=      5-min Rain = 0
KJU1 241850Z 24003KT 24/17 A3007 RMK A01 T02410173  RH  066%=      5-min Rain = 0
KJU1 241851Z 22003KT 24/17 A3007 RMK A01 T02430171  RH  064%=      5-min Rain = 0
KJU1 241852Z 21005KT 25/18 A3007 RMK A01 T02460176  RH  065%=      5-min Rain = 0
KJU1 241853Z 21004KT 25/18 A3007 RMK A01 T02500180  RH  065%=      5-min Rain = 0
KJU1 241854Z 23008KT 25/17 A3007 RMK A01 T02520174  RH  062%=      5-min Rain = 0
KJU1 241855Z 23012KT 25/17 A3007 RMK A01 T02500170  RH  061%=      5-min Rain = 0
KJU1 241856Z 24007KT 25/17 A3007 RMK A01 T02470170  RH  062%=      5-min Rain = 0
KJU1 241857Z 23006KT 25/17 A3007 RMK A01 T02450171  RH  063%=      5-min Rain = 0
KJU1 241858Z 23007KT 25/17 A3007 RMK A01 T02460172  RH  063%=      5-min Rain = 0
KJU1 241859Z 24008KT 25/17 A3007 RMK A01 T02460172  RH  064%=      5-min Rain = 0
KJU1 241900Z 25008KT 25/17 A3007 RMK A01 T02470171  RH  063%=      5-min Rain = 0
KJU1 241901Z 25004KT 25/17 A3007 RMK A01 T02460172  RH  063%=      5-min Rain = 0
KJU1 241902Z 23007G13KT 25/18 A3007 RMK A01 T02480175  RH  064%=      5-min Rain = 0
KJU1 241903Z 24010KT 25/17 A3007 RMK A01 T02480171  RH  062%=      5-min Rain = 0
KJU1 241904Z 24010KT 25/17 A3007 RMK A01 T02480168  RH  061%=      5-min Rain = 0
KJU1 241905Z 24008KT 25/17 A3006 RMK A01 T02460169  RH  062%=      5-min Rain = 0
KJU1 241906Z 24009KT 25/17 A3006 RMK A01 T02460168  RH  062%=      5-min Rain = 0
KJU1 241907Z 24008KT 25/17 A3006 RMK A01 T02450170  RH  063%=      5-min Rain = 0
KJU1 241908Z 23008KT 25/17 A3006 RMK A01 T02460169  RH  062%=      5-min Rain = 0
KJU1 241909Z 24007KT 25/17 A3006 RMK A01 T02480172  RH  063%=      5-min Rain = 0
KJU1 241910Z 24009KT 25/17 A3006 RMK A01 T02500171  RH  062%=      5-min Rain = 0
KJU1 241911Z 24007KT 25/17 A3006 RMK A01 T02490171  RH  062%=      5-min Rain = 0
KJU1 241912Z 22009KT 25/17 A3006 RMK A01 T02490169  RH  061%=      5-min Rain = 0
KJU1 241913Z 22010KT 25/17 A3006 RMK A01 T02480171  RH  062%=      5-min Rain = 0
KJU1 241914Z 22011KT 25/17 A3006 RMK A01 T02490169  RH  061%=      5-min Rain = 0
KJU1 241915Z 23010KT 25/17 A3006 RMK A01 T02470167  RH  061%=      5-min Rain = 0
KJU1 241916Z 23007KT 25/17 A3006 RMK A01 T02450168  RH  062%=      5-min Rain = 0
KJU1 241917Z 22008KT 25/17 A3006 RMK A01 T02450170  RH  063%=      5-min Rain = 0
KJU1 241918Z 22009KT 25/17 A3006 RMK A01 T02470171  RH  063%=      5-min Rain = 0
KJU1 241919Z 24005KT 25/17 A3006 RMK A01 T02480171  RH  062%=      5-min Rain = 0
KJU1 241920Z 24007KT 25/17 A3006 RMK A01 T02480172  RH  062%=      5-min Rain = 0
KJU1 241921Z 22005KT 25/18 A3006 RMK A01 T02500175  RH  063%=      5-min Rain = 0
KJU1 241922Z 23007KT 25/18 A3006 RMK A01 T02520177  RH  063%=      5-min Rain = 0
KJU1 241923Z 23009KT 25/17 A3006 RMK A01 T02540172  RH  060%=      5-min Rain = 0
KJU1 241924Z 22008KT 25/17 A3006 RMK A01 T02520169  RH  060%=      5-min Rain = 0
KJU1 241925Z 24009KT 25/17 A3005 RMK A01 T02510171  RH  061%=      5-min Rain = 0
KJU1 241926Z 23009KT 25/17 A3006 RMK A01 T02520171  RH  061%=      5-min Rain = 0
KJU1 241927Z 24006KT 25/17 A3005 RMK A01 T02520168  RH  059%=      5-min Rain = 0
KJU1 241928Z 23007KT 25/17 A3005 RMK A01 T02500166  RH  060%=      5-min Rain = 0
KJU1 241929Z 23010KT 25/17 A3005 RMK A01 T02490168  RH  061%=      5-min Rain = 0
KJU1 241930Z 23009KT 25/17 A3005 RMK A01 T02500170  RH  061%=      5-min Rain = 0
KJU1 241931Z 23008KT 25/17 A3005 RMK A01 T02520169  RH  060%=      5-min Rain = 0
KJU1 241932Z 23009KT 25/17 A3005 RMK A01 T02530171  RH  061%=      5-min Rain = 0
KJU1 241933Z 23008KT 25/17 A3005 RMK A01 T02530169  RH  059%=      5-min Rain = 0
KJU1 241934Z 23007KT 25/17 A3005 RMK A01 T02540170  RH  060%=      5-min Rain = 0
KJU1 241935Z 24007KT 25/17 A3005 RMK A01 T02540168  RH  059%=      5-min Rain = 0
KJU1 241936Z 24007KT 25/17 A3005 RMK A01 T02530169  RH  059%=      5-min Rain = 0
KJU1 241937Z 22007KT 25/17 A3005 RMK A01 T02530170  RH  060%=      5-min Rain = 0
KJU1 241938Z 22010KT 25/17 A3005 RMK A01 T02540170  RH  060%=      5-min Rain = 0
KJU1 241939Z 23007KT 25/17 A3005 RMK A01 T02540167  RH  059%=      5-min Rain = 0
KJU1 241940Z 22011KT 25/17 A3005 RMK A01 T02530169  RH  060%=      5-min Rain = 0
KJU1 241941Z 23009KT 25/17 A3005 RMK A01 T02530167  RH  059%=      5-min Rain = 0
KJU1 241942Z 25009KT 25/17 A3005 RMK A01 T02520166  RH  059%=      5-min Rain = 0
KJU1 241943Z 25009KT 25/17 A3005 RMK A01 T02520169  RH  060%=      5-min Rain = 0
KJU1 241944Z 23010KT 25/17 A3005 RMK A01 T02520168  RH  059%=      5-min Rain = 0
KJU1 241945Z 25007KT 25/17 A3005 RMK A01 T02540168  RH  059%=      5-min Rain = 0
KJU1 241946Z 25005KT 25/17 A3005 RMK A01 T02530168  RH  059%=      5-min Rain = 0
KJU1 241947Z 22009G14KT 25/17 A3005 RMK A01 T02540168  RH  059%=      5-min Rain = 0
KJU1 241948Z 23008KT 25/17 A3005 RMK A01 T02540168  RH  059%=      5-min Rain = 0
KJU1 241949Z 23008KT 25/17 A3005 RMK A01 T02540169  RH  059%=      5-min Rain = 0
KJU1 241950Z 24006KT 26/18 A3005 RMK A01 T02570175  RH  061%=      5-min Rain = 0
KJU1 241951Z 23010KT 26/17 A3004 RMK A01 T02580170  RH  058%=      5-min Rain = 0
KJU1 241952Z 24008KT 26/17 A3004 RMK A01 T02570169  RH  058%=      5-min Rain = 0
KJU1 241953Z 24010KT 26/17 A3005 RMK A01 T02560168  RH  058%=      5-min Rain = 0
KJU1 241954Z 23008KT 26/17 A3004 RMK A01 T02550168  RH  059%=      5-min Rain = 0
KJU1 241955Z 22007KT 25/17 A3004 RMK A01 T02540170  RH  060%=      5-min Rain = 0
KJU1 241956Z 22008KT 26/17 A3004 RMK A01 T02550170  RH  059%=      5-min Rain = 0
KJU1 241957Z 21008KT 26/17 A3004 RMK A01 T02560169  RH  059%=      5-min Rain = 0
KJU1 241958Z 22006KT 26/17 A3004 RMK A01 T02570173  RH  060%=      5-min Rain = 0
KJU1 241959Z 21007KT 26/17 A3004 RMK A01 T02580172  RH  059%=      5-min Rain = 0
KJU1 242000Z 22007KT 26/17 A3004 RMK A01 T02570171  RH  059%=      5-min Rain = 0
KJU1 242001Z 21005KT 26/17 A3004 RMK A01 T02550172  RH  060%=      5-min Rain = 0
KJU1 242002Z 22006G12KT 25/17 A3004 RMK A01 T02540170  RH  059%=      5-min Rain = 0
KJU1 242003Z 22009KT 26/17 A3004 RMK A01 T02550171  RH  060%=      5-min Rain = 0
KJU1 242004Z 25009KT 26/17 A3004 RMK A01 T02570167  RH  057%=      5-min Rain = 0
KJU1 242005Z 25007KT 26/17 A3004 RMK A01 T02570169  RH  058%=      5-min Rain = 0
KJU1 242006Z 24008KT 26/17 A3004 RMK A01 T02580169  RH  058%=      5-min Rain = 0
KJU1 242007Z 24007KT 26/17 A3004 RMK A01 T02580170  RH  058%=      5-min Rain = 0
KJU1 242008Z 23007KT 26/17 A3004 RMK A01 T02580168  RH  058%=      5-min Rain = 0
KJU1 242009Z 23008KT 26/17 A3004 RMK A01 T02590169  RH  058%=      5-min Rain = 0
KJU1 242010Z 23006KT 26/17 A3004 RMK A01 T02600171  RH  058%=      5-min Rain = 0
KJU1 242011Z 23008KT 26/17 A3004 RMK A01 T02610169  RH  057%=      5-min Rain = 0
KJU1 242012Z 22009KT 26/17 A3004 RMK A01 T02600169  RH  057%=      5-min Rain = 0
KJU1 242013Z 22008KT 26/17 A3004 RMK A01 T02590168  RH  057%=      5-min Rain = 0
KJU1 242014Z 22006KT 26/17 A3004 RMK A01 T02590170  RH  058%=      5-min Rain = 0
KJU1 242015Z 23007KT 26/17 A3004 RMK A01 T02580171  RH  058%=      5-min Rain = 0
KJU1 242016Z 22009KT 26/17 A3003 RMK A01 T02600171  RH  058%=      5-min Rain = 0
KJU1 242017Z 24008KT 26/17 A3003 RMK A01 T02600172  RH  058%=      5-min Rain = 0
KJU1 242018Z 23006KT 26/17 A3003 RMK A01 T02600169  RH  057%=      5-min Rain = 0
KJU1 242019Z 22004KT 26/17 A3003 RMK A01 T02600171  RH  058%=      5-min Rain = 0
KJU1 242020Z 24008KT 26/18 A3003 RMK A01 T02610176  RH  060%=      5-min Rain = 0
KJU1 242021Z 23004KT 26/18 A3003 RMK A01 T02620175  RH  059%=      5-min Rain = 0
KJU1 242022Z 22009G14KT 26/17 A3003 RMK A01 T02630172  RH  057%=      5-min Rain = 0
KJU1 242023Z 24007KT 26/17 A3003 RMK A01 T02630173  RH  058%=      5-min Rain = 0
KJU1 242024Z 24008KT 26/17 A3003 RMK A01 T02640171  RH  057%=      5-min Rain = 0
KJU1 242025Z 23007KT 26/17 A3003 RMK A01 T02630169  RH  056%=      5-min Rain = 0
KJU1 242026Z 24006G11KT 26/17 A3003 RMK A01 T02620169  RH  057%=      5-min Rain = 0
KJU1 242027Z 25007G12KT 26/17 A3003 RMK A01 T02620169  RH  057%=      5-min Rain = 0
KJU1 242028Z 24008KT 26/17 A3003 RMK A01 T02630168  RH  056%=      5-min Rain = 0
KJU1 242029Z 23009KT 27/17 A3003 RMK A01 T02650166  RH  055%=      5-min Rain = 0
KJU1 242030Z 23007KT 27/17 A3003 RMK A01 T02650169  RH  056%=      5-min Rain = 0
KJU1 242031Z 23008G13KT 27/17 A3003 RMK A01 T02660169  RH  056%=      5-min Rain = 0
KJU1 242032Z 23010KT 27/17 A3003 RMK A01 T02650165  RH  054%=      5-min Rain = 0
KJU1 242033Z 22008KT 26/16 A3003 RMK A01 T02620163  RH  054%=      5-min Rain = 0
KJU1 242034Z 21009KT 26/16 A3003 RMK A01 T02610163  RH  055%=      5-min Rain = 0
KJU1 242035Z 23008KT 26/17 A3003 RMK A01 T02610165  RH  055%=      5-min Rain = 0
KJU1 242036Z 22008KT 26/16 A3002 RMK A01 T02630164  RH  055%=      5-min Rain = 0
KJU1 242037Z 21009KT 26/16 A3002 RMK A01 T02630164  RH  054%=      5-min Rain = 0
KJU1 242038Z 21009KT 26/17 A3002 RMK A01 T02640167  RH  055%=      5-min Rain = 0
KJU1 242039Z 22011KT 27/16 A3002 RMK A01 T02650163  RH  053%=      5-min Rain = 0
KJU1 242040Z 23009KT 26/16 A3002 RMK A01 T02640162  RH  054%=      5-min Rain = 0
KJU1 242041Z 24007KT 26/17 A3002 RMK A01 T02630166  RH  055%=      5-min Rain = 0
KJU1 242042Z 22007KT 27/17 A3002 RMK A01 T02650167  RH  055%=      5-min Rain = 0
KJU1 242043Z 22008KT 27/17 A3002 RMK A01 T02660167  RH  055%=      5-min Rain = 0
KJU1 242044Z 23009KT 27/17 A3002 RMK A01 T02660165  RH  054%=      5-min Rain = 0
KJU1 242045Z 23008KT 27/17 A3002 RMK A01 T02660166  RH  054%=      5-min Rain = 0
KJU1 242046Z 22009KT 27/17 A3002 RMK A01 T02660166  RH  054%=      5-min Rain = 0
KJU1 242047Z 22008KT 27/17 A3002 RMK A01 T02660169  RH  055%=      5-min Rain = 0
KJU1 242048Z 21009KT 27/17 A3002 RMK A01 T02690167  RH  054%=      5-min Rain = 0
KJU1 242049Z 22006KT 27/16 A3002 RMK A01 T02680160  RH  052%=      5-min Rain = 0
KJU1 242050Z 22006KT 27/16 A3002 RMK A01 T02660160  RH  052%=      5-min Rain = 0
KJU1 242051Z 20007KT 27/16 A3002 RMK A01 T02650164  RH  054%=      5-min Rain = 0
KJU1 242052Z 21007KT 27/17 A3002 RMK A01 T02670165  RH  054%=      5-min Rain = 0
KJU1 242053Z 22005KT 27/16 A3002 RMK A01 T02680164  RH  053%=      5-min Rain = 0
KJU1 242054Z 23008KT 27/17 A3002 RMK A01 T02680165  RH  053%=      5-min Rain = 0
KJU1 242055Z 23007KT 27/16 A3002 RMK A01 T02670162  RH  052%=      5-min Rain = 0
KJU1 242056Z 21007KT 27/17 A3002 RMK A01 T02660165  RH  054%=      5-min Rain = 0
KJU1 242057Z 21008KT 27/16 A3002 RMK A01 T02660164  RH  053%=      5-min Rain = 0
KJU1 242058Z 22005KT 27/16 A3002 RMK A01 T02650162  RH  053%=      5-min Rain = 0
KJU1 242059Z 24005KT 27/17 A3002 RMK A01 T02650166  RH  054%=      5-min Rain = 0
KJU1 242100Z 23005G11KT 27/17 A3002 RMK A01 T02670165  RH  054%=      5-min Rain = 0
KJU1 242101Z 23011KT 27/16 A3002 RMK A01 T02690164  RH  053%=      5-min Rain = 0
KJU1 242102Z 23008KT 27/16 A3002 RMK A01 T02690162  RH  052%=      5-min Rain = 0
KJU1 242103Z 23008KT 27/16 A3002 RMK A01 T02690162  RH  052%=      5-min Rain = 0
KJU1 242104Z 23008KT 27/16 A3002 RMK A01 T02680160  RH  052%=      5-min Rain = 0
KJU1 242105Z 22006KT 27/16 A3002 RMK A01 T02670164  RH  053%=      5-min Rain = 0
KJU1 242106Z 20007KT 27/17 A3002 RMK A01 T02690166  RH  053%=      5-min Rain = 0
KJU1 242107Z 19009KT 27/17 A3002 RMK A01 T02690167  RH  054%=      5-min Rain = 0
KJU1 242108Z 21006KT 27/17 A3002 RMK A01 T02680167  RH  054%=      5-min Rain = 0
KJU1 242109Z 21005KT 27/16 A3002 RMK A01 T02670164  RH  053%=      5-min Rain = 0
KJU1 242110Z 22006KT 27/17 A3002 RMK A01 T02660165  RH  054%=      5-min Rain = 0
KJU1 242111Z 22009KT 27/16 A3002 RMK A01 T02670163  RH  053%=      5-min Rain = 0
KJU1 242112Z 23008KT 27/16 A3002 RMK A01 T02680162  RH  052%=      5-min Rain = 0
KJU1 242113Z 23008KT 27/16 A3002 RMK A01 T02690159  RH  051%=      5-min Rain = 0
KJU1 242114Z 24006KT 27/16 A3002 RMK A01 T02690161  RH  052%=      5-min Rain = 0
KJU1 242115Z 24005KT 27/16 A3002 RMK A01 T02680162  RH  052%=      5-min Rain = 0
KJU1 242116Z 22005KT 27/16 A3002 RMK A01 T02680162  RH  052%=      5-min Rain = 0
KJU1 242117Z 22007KT 27/16 A3002 RMK A01 T02690159  RH  051%=      5-min Rain = 0
KJU1 242118Z 22007KT 27/16 A3002 RMK A01 T02710155  RH  049%=      5-min Rain = 0
KJU1 242119Z 23008KT 27/16 A3002 RMK A01 T02720161  RH  051%=      5-min Rain = 0
KJU1 242120Z 22009KT 27/16 A3002 RMK A01 T02730160  RH  050%=      5-min Rain = 0
KJU1 242121Z 23007KT 27/16 A3002 RMK A01 T02730161  RH  050%=      5-min Rain = 0
KJU1 242122Z 22005KT 27/16 A3002 RMK A01 T02720163  RH  051%=      5-min Rain = 0
KJU1 242123Z 20007KT 27/16 A3001 RMK A01 T02730162  RH  051%=      5-min Rain = 0
KJU1 242124Z 21010KT 27/16 A3001 RMK A01 T02730161  RH  050%=      5-min Rain = 0
KJU1 242125Z 22008KT 27/16 A3001 RMK A01 T02730161  RH  050%=      5-min Rain = 0
KJU1 242126Z 22009KT 27/16 A3001 RMK A01 T02720163  RH  051%=      5-min Rain = 0
KJU1 242127Z 21008KT 27/16 A3001 RMK A01 T02720159  RH  050%=      5-min Rain = 0
KJU1 242128Z 22007KT 27/16 A3001 RMK A01 T02710159  RH  050%=      5-min Rain = 0
KJU1 242129Z 24007KT 27/16 A3001 RMK A01 T02720163  RH  051%=      5-min Rain = 0
KJU1 242130Z 23006KT 27/16 A3001 RMK A01 T02730162  RH  051%=      5-min Rain = 0
KJU1 242131Z 25005KT 27/17 A3001 RMK A01 T02730166  RH  052%=      5-min Rain = 0
KJU1 242132Z 25006KT 27/16 A3001 RMK A01 T02740159  RH  049%=      5-min Rain = 0
KJU1 242133Z 21009KT 27/16 A3001 RMK A01 T02740161  RH  050%=      5-min Rain = 0
KJU1 242134Z 20008KT 27/16 A3001 RMK A01 T02730158  RH  049%=      5-min Rain = 0
KJU1 242135Z 20006KT 27/16 A3001 RMK A01 T02720158  RH  050%=      5-min Rain = 0
KJU1 242136Z 21004KT 27/16 A3001 RMK A01 T02720162  RH  051%=      5-min Rain = 0
KJU1 242137Z 22006KT 27/16 A3001 RMK A01 T02730160  RH  050%=      5-min Rain = 0
KJU1 242138Z 22009KT 28/16 A3001 RMK A01 T02750158  RH  049%=      5-min Rain = 0
KJU1 242139Z 21010KT 28/15 A3001 RMK A01 T02750152  RH  047%=      5-min Rain = 0
KJU1 242140Z 22009KT 27/15 A3001 RMK A01 T02730153  RH  048%=      5-min Rain = 0
KJU1 242141Z 22008KT 27/15 A3001 RMK A01 T02720152  RH  048%=      5-min Rain = 0
KJU1 242142Z 22006KT 27/16 A30 RMK A01 T02710157  RH  050%=      5-min Rain = 0
KJU1 242143Z 24006KT 27/16 A30 RMK A01 T02740161  RH  050%=      5-min Rain = 0
KJU1 242144Z 25005KT 28/16 A30 RMK A01 T02750159  RH  049%=      5-min Rain = 0
KJU1 242145Z 26006KT 28/16 A30 RMK A01 T02750161  RH  050%=      5-min Rain = 0
KJU1 242146Z 25007KT 28/15 A30 RMK A01 T02750152  RH  047%=      5-min Rain = 0
KJU1 242147Z 24004KT 27/16 A30 RMK A01 T02740156  RH  048%=      5-min Rain = 0
KJU1 242148Z 23003KT 28/16 A30 RMK A01 T02750162  RH  050%=      5-min Rain = 0
KJU1 242149Z 23006G11KT 28/16 A30 RMK A01 T02780162  RH  050%=      5-min Rain = 0
KJU1 242150Z 25006KT 28/16 A30 RMK A01 T02780156  RH  047%=      5-min Rain = 0
KJU1 242151Z 24006KT 28/16 A30 RMK A01 T02750156  RH  048%=      5-min Rain = 0
KJU1 242152Z 22007KT 27/16 A30 RMK A01 T02740159  RH  049%=      5-min Rain = 0
KJU1 242153Z 24006KT 28/16 A30 RMK A01 T02750160  RH  050%=      5-min Rain = 0
KJU1 242154Z 23005KT 28/16 A30 RMK A01 T02760158  RH  048%=      5-min Rain = 0
KJU1 242155Z 23009KT 28/16 A30 RMK A01 T02770160  RH  049%=      5-min Rain = 0
KJU1 242156Z 22008KT 28/16 A30 RMK A01 T02770158  RH  048%=      5-min Rain = 0
KJU1 242157Z 22008KT 28/16 A30 RMK A01 T02770158  RH  048%=      5-min Rain = 0
KJU1 242158Z 23006KT 28/16 A30 RMK A01 T02760156  RH  048%=      5-min Rain = 0
KJU1 242159Z 23008KT 28/16 A30 RMK A01 T02750155  RH  048%=      5-min Rain = 0
KJU1 242200Z 21008KT 27/16 A30 RMK A01 T02740156  RH  048%=      5-min Rain = 0
KJU1 242201Z 20010KT 27/16 A2999 RMK A01 T02740155  RH  048%=      5-min Rain = 0
KJU1 242202Z 21008KT 27/16 A2999 RMK A01 T02740156  RH  048%=      5-min Rain = 0
KJU1 242203Z 21007KT 27/16 A2999 RMK A01 T02740155  RH  048%=      5-min Rain = 0
KJU1 242204Z 22007KT 27/15 A2999 RMK A01 T02730154  RH  048%=      5-min Rain = 0
KJU1 242205Z 20006KT 27/15 A2999 RMK A01 T02730152  RH  048%=      5-min Rain = 0
KJU1 242206Z 18006KT 27/16 A2999 RMK A01 T02740158  RH  049%=      5-min Rain = 0
KJU1 242207Z 21005KT 28/16 A2999 RMK A01 T02750158  RH  049%=      5-min Rain = 0
KJU1 242208Z 18005KT 28/16 A2999 RMK A01 T02760161  RH  049%=      5-min Rain = 0
KJU1 242209Z 19008KT 28/16 A2999 RMK A01 T02770161  RH  049%=      5-min Rain = 0
KJU1 242210Z 19007KT 28/16 A2999 RMK A01 T02770159  RH  049%=      5-min Rain = 0
KJU1 242211Z 20007KT 28/16 A2999 RMK A01 T02760161  RH  050%=      5-min Rain = 0
KJU1 242212Z 22007KT 28/16 A2999 RMK A01 T02760162  RH  050%=      5-min Rain = 0
KJU1 242213Z 22006KT 28/16 A2999 RMK A01 T02760158  RH  049%=      5-min Rain = 0
KJU1 242214Z 23007KT 28/16 A2999 RMK A01 T02750161  RH  050%=      5-min Rain = 0
KJU1 242215Z 22011KT 28/16 A2999 RMK A01 T02750155  RH  048%=      5-min Rain = 0
KJU1 242216Z 19008KT 28/16 A2999 RMK A01 T02750157  RH  049%=      5-min Rain = 0
KJU1 242217Z 18007KT 28/16 A2999 RMK A01 T02750159  RH  049%=      5-min Rain = 0
KJU1 242218Z 19006KT 27/15 A2999 RMK A01 T02740152  RH  047%=      5-min Rain = 0
KJU1 242219Z 20004KT 27/16 A2999 RMK A01 T02730155  RH  048%=      5-min Rain = 0
KJU1 242220Z 21004KT 27/16 A2999 RMK A01 T02740156  RH  049%=      5-min Rain = 0
KJU1 242221Z 21005KT 28/16 A2998 RMK A01 T02760161  RH  050%=      5-min Rain = 0
KJU1 242222Z 18008KT 28/16 A2998 RMK A01 T02770163  RH  050%=      5-min Rain = 0
KJU1 242223Z 20009KT 28/16 A2998 RMK A01 T02790160  RH  048%=      5-min Rain = 0
KJU1 242224Z 20008KT 28/16 A2998 RMK A01 T02770155  RH  047%=      5-min Rain = 0
KJU1 242225Z 20007KT 28/15 A2998 RMK A01 T02750154  RH  048%=      5-min Rain = 0
KJU1 242226Z 20006KT 27/16 A2998 RMK A01 T02740157  RH  049%=      5-min Rain = 0
KJU1 242227Z 22006KT 27/16 A2998 RMK A01 T02730157  RH  049%=      5-min Rain = 0
KJU1 242228Z 24007KT 27/16 A2998 RMK A01 T02740156  RH  049%=      5-min Rain = 0
KJU1 242229Z 22007KT 28/16 A2998 RMK A01 T02750158  RH  049%=      5-min Rain = 0
KJU1 242230Z 22009KT 28/15 A2998 RMK A01 T02750153  RH  047%=      5-min Rain = 0
KJU1 242231Z 21007KT 27/15 A2998 RMK A01 T02740154  RH  048%=      5-min Rain = 0
KJU1 242232Z 21007KT 28/15 A2998 RMK A01 T02750154  RH  048%=      5-min Rain = 0
KJU1 242233Z 22006KT 27/16 A2998 RMK A01 T02740155  RH  048%=      5-min Rain = 0
KJU1 242234Z 22006KT 28/16 A2998 RMK A01 T02750157  RH  049%=      5-min Rain = 0
KJU1 242235Z 22007KT 28/16 A2998 RMK A01 T02750156  RH  048%=      5-min Rain = 0
KJU1 242236Z 22009KT 28/15 A2998 RMK A01 T02750154  RH  047%=      5-min Rain = 0
KJU1 242237Z 21008KT 28/15 A2998 RMK A01 T02750149  RH  046%=      5-min Rain = 0
KJU1 242238Z 20009KT 28/15 A2998 RMK A01 T02750150  RH  046%=      5-min Rain = 0
KJU1 242239Z 20007KT 27/15 A2998 RMK A01 T02730148  RH  046%=      5-min Rain = 0
KJU1 242240Z 23006KT 27/15 A2998 RMK A01 T02720148  RH  047%=      5-min Rain = 0
KJU1 242241Z 24005KT 27/15 A2998 RMK A01 T02720149  RH  047%=      5-min Rain = 0
KJU1 242242Z 25006KT 27/15 A2998 RMK A01 T02730154  RH  048%=      5-min Rain = 0
KJU1 242243Z 26006KT 27/15 A2998 RMK A01 T02740154  RH  048%=      5-min Rain = 0
KJU1 242244Z 25006KT 27/15 A2998 RMK A01 T02730154  RH  048%=      5-min Rain = 0
KJU1 242245Z 22007KT 27/16 A2998 RMK A01 T02740155  RH  048%=      5-min Rain = 0
KJU1 242246Z 24006KT 27/16 A2998 RMK A01 T02730155  RH  048%=      5-min Rain = 0
KJU1 242247Z 23005KT 27/16 A2998 RMK A01 T02740158  RH  049%=      5-min Rain = 0
KJU1 242248Z 23006KT 27/16 A2998 RMK A01 T02740157  RH  049%=      5-min Rain = 0
KJU1 242249Z 24007KT 27/16 A2998 RMK A01 T02740156  RH  049%=      5-min Rain = 0
KJU1 242250Z 24007KT 27/16 A2998 RMK A01 T02740155  RH  048%=      5-min Rain = 0
KJU1 242251Z 23005KT 27/16 A2998 RMK A01 T02740156  RH  049%=      5-min Rain = 0
KJU1 242252Z 23007KT 27/16 A2998 RMK A01 T02740159  RH  049%=      5-min Rain = 0
KJU1 242253Z 23008KT 27/16 A2998 RMK A01 T02740160  RH  050%=      5-min Rain = 0
KJU1 242254Z 23008KT 27/16 A2998 RMK A01 T02740158  RH  049%=      5-min Rain = 0
KJU1 242255Z 22007KT 27/16 A2998 RMK A01 T02720155  RH  049%=      5-min Rain = 0
KJU1 242256Z 21005KT 27/16 A2998 RMK A01 T02720158  RH  050%=      5-min Rain = 0
KJU1 242257Z 22007KT 27/16 A2998 RMK A01 T02720158  RH  050%=      5-min Rain = 0
KJU1 242258Z 21006KT 27/16 A2998 RMK A01 T02730158  RH  049%=      5-min Rain = 0
KJU1 242259Z 20006KT 27/16 A2998 RMK A01 T02730160  RH  050%=      5-min Rain = 0
KJU1 242300Z 20006KT 27/16 A2998 RMK A01 T02730161  RH  050%=      5-min Rain = 0
KJU1 242301Z 19005KT 27/16 A2998 RMK A01 T02720160  RH  050%=      5-min Rain = 0
KJU1 242302Z 21005KT 27/16 A2998 RMK A01 T02720163  RH  051%=      5-min Rain = 0
KJU1 242303Z 20007KT 27/16 A2998 RMK A01 T02720160  RH  050%=      5-min Rain = 0
KJU1 242304Z 21005KT 27/16 A2998 RMK A01 T02720161  RH  051%=      5-min Rain = 0
KJU1 242305Z 19005KT 27/16 A2998 RMK A01 T02720160  RH  050%=      5-min Rain = 0
KJU1 242306Z 21006KT 27/16 A2998 RMK A01 T02720160  RH  050%=      5-min Rain = 0
KJU1 242307Z 22008KT 27/16 A2998 RMK A01 T02720161  RH  050%=      5-min Rain = 0
KJU1 242308Z 20007KT 27/16 A2998 RMK A01 T02720159  RH  050%=      5-min Rain = 0
KJU1 242309Z 21005KT 27/16 A2998 RMK A01 T02720162  RH  051%=      5-min Rain = 0
KJU1 242310Z 22004KT 27/16 A2998 RMK A01 T02720163  RH  051%=      5-min Rain = 0
KJU1 242311Z 22005KT 27/17 A2998 RMK A01 T02730165  RH  052%=      5-min Rain = 0
KJU1 242312Z 22009KT 27/16 A2998 RMK A01 T02740160  RH  050%=      5-min Rain = 0
KJU1 242313Z 20009KT 27/16 A2998 RMK A01 T02720162  RH  051%=      5-min Rain = 0
KJU1 242314Z 19008KT 27/16 A2998 RMK A01 T02710160  RH  051%=      5-min Rain = 0
KJU1 242315Z 19007KT 27/16 A2998 RMK A01 T02690158  RH  051%=      5-min Rain = 0
KJU1 242316Z 19008KT 27/16 A2998 RMK A01 T02680157  RH  051%=      5-min Rain = 0
KJU1 242317Z 20006KT 27/16 A2998 RMK A01 T02680161  RH  052%=      5-min Rain = 0
KJU1 242318Z 20007KT 27/16 A2998 RMK A01 T02680158  RH  051%=      5-min Rain = 0
KJU1 242319Z 20005KT 27/16 A2998 RMK A01 T02680157  RH  051%=      5-min Rain = 0
KJU1 242320Z 20006KT 27/16 A2998 RMK A01 T02690159  RH  051%=      5-min Rain = 0
KJU1 242321Z 20007KT 27/16 A2998 RMK A01 T02700160  RH  051%=      5-min Rain = 0
KJU1 242322Z 20006KT 27/16 A2998 RMK A01 T02700159  RH  051%=      5-min Rain = 0
KJU1 242323Z 20007KT 27/16 A2998 RMK A01 T02700158  RH  050%=      5-min Rain = 0
KJU1 242324Z 19007KT 27/16 A2999 RMK A01 T02690156  RH  050%=      5-min Rain = 0
KJU1 242325Z 20007KT 27/16 A2999 RMK A01 T02680157  RH  050%=      5-min Rain = 0
KJU1 242326Z 20006KT 27/16 A2999 RMK A01 T02670155  RH  050%=      5-min Rain = 0
KJU1 242327Z 21006KT 27/15 A2999 RMK A01 T02670153  RH  050%=      5-min Rain = 0
KJU1 242328Z 20006KT 27/15 A2999 RMK A01 T02670153  RH  050%=      5-min Rain = 0
KJU1 242329Z 20005KT 27/16 A2999 RMK A01 T02670155  RH  050%=      5-min Rain = 0
KJU1 242330Z 20005KT 27/15 A2999 RMK A01 T02670154  RH  050%=      5-min Rain = 0
KJU1 242331Z 20007KT 27/15 A2999 RMK A01 T02670154  RH  050%=      5-min Rain = 0
KJU1 242332Z 20009KT 27/16 A2999 RMK A01 T02670155  RH  050%=      5-min Rain = 0
KJU1 242333Z 21009KT 27/16 A2999 RMK A01 T02670155  RH  050%=      5-min Rain = 0
KJU1 242334Z 20008KT 27/16 A2999 RMK A01 T02660155  RH  050%=      5-min Rain = 0
KJU1 242335Z 20006KT 27/16 A2999 RMK A01 T02660156  RH  051%=      5-min Rain = 0
KJU1 242336Z 21006KT 27/16 A2999 RMK A01 T02660157  RH  051%=      5-min Rain = 0
KJU1 242337Z 21004KT 27/16 A2999 RMK A01 T02660155  RH  051%=      5-min Rain = 0
KJU1 242338Z 22004KT 27/16 A2999 RMK A01 T02670158  RH  051%=      5-min Rain = 0
KJU1 242339Z 22004KT 27/16 A2999 RMK A01 T02670159  RH  051%=      5-min Rain = 0
KJU1 242340Z 21005KT 27/16 A2999 RMK A01 T02680160  RH  052%=      5-min Rain = 0
KJU1 242341Z 22006KT 27/16 A2999 RMK A01 T02680160  RH  051%=      5-min Rain = 0
KJU1 242342Z 21006KT 27/16 A2999 RMK A01 T02670155  RH  050%=      5-min Rain = 0
KJU1 242343Z 21006KT 27/16 A2999 RMK A01 T02670157  RH  051%=      5-min Rain = 0
KJU1 242344Z 21007KT 27/16 A2999 RMK A01 T02660156  RH  051%=      5-min Rain = 0
KJU1 242345Z 23006KT 27/16 A2999 RMK A01 T02660157  RH  051%=      5-min Rain = 0
KJU1 242346Z 23006KT 27/16 A2999 RMK A01 T02660157  RH  051%=      5-min Rain = 0
KJU1 242347Z 22008KT 27/16 A2999 RMK A01 T02660157  RH  051%=      5-min Rain = 0
KJU1 242348Z 23008KT 27/16 A2999 RMK A01 T02660156  RH  051%=      5-min Rain = 0
KJU1 242349Z 23007KT 27/16 A2999 RMK A01 T02650156  RH  051%=      5-min Rain = 0
KJU1 242350Z 22004KT 27/16 A2999 RMK A01 T02650158  RH  052%=      5-min Rain = 0
KJU1 242351Z 21007KT 27/16 A2999 RMK A01 T02650158  RH  052%=      5-min Rain = 0
KJU1 242352Z 21007KT 27/16 A2999 RMK A01 T02650157  RH  051%=      5-min Rain = 0
KJU1 242353Z 23007KT 27/16 A2999 RMK A01 T02650158  RH  052%=      5-min Rain = 0
KJU1 242354Z 23008KT 26/16 A2999 RMK A01 T02640155  RH  051%=      5-min Rain = 0
KJU1 242355Z 23007KT 26/16 A2999 RMK A01 T02640156  RH  051%=      5-min Rain = 0
KJU1 242356Z 23006KT 26/16 A2999 RMK A01 T02630155  RH  051%=      5-min Rain = 0
KJU1 242357Z 22007KT 26/16 A2999 RMK A01 T02630155  RH  052%=      5-min Rain = 0
KJU1 242358Z 22006KT 26/16 A2999 RMK A01 T02620156  RH  052%=      5-min Rain = 0
KJU1 242359Z 21007KT 26/16 A2999 RMK A01 T02620157  RH  052%=      5-min Rain = 0
KJU1 250000Z 22007KT 26/16 A2999 RMK A01 T02620157  RH  052%=      5-min Rain = 0
KJU1 250001Z 22006KT 26/16 A2999 RMK A01 T02610156  RH  052%=      5-min Rain = 0
KJU1 250002Z 23007KT 26/16 A2999 RMK A01 T02620157  RH  053%=      5-min Rain = 0
KJU1 250003Z 23006KT 26/16 A2999 RMK A01 T02620157  RH  053%=      5-min Rain = 0
KJU1 250004Z 23006KT 26/16 A2999 RMK A01 T02620157  RH  053%=      5-min Rain = 0
KJU1 250005Z 23007KT 26/16 A2999 RMK A01 T02610159  RH  053%=      5-min Rain = 0
KJU1 250006Z 22007KT 26/16 A2999 RMK A01 T02610157  RH  053%=      5-min Rain = 0
KJU1 250007Z 23007KT 26/16 A2999 RMK A01 T02610157  RH  053%=      5-min Rain = 0
KJU1 250008Z 22007KT 26/16 A2999 RMK A01 T02600158  RH  053%=      5-min Rain = 0
KJU1 250009Z 22007KT 26/16 A2999 RMK A01 T02590157  RH  053%=      5-min Rain = 0
KJU1 250010Z 22006KT 26/16 A2999 RMK A01 T02590158  RH  054%=      5-min Rain = 0
KJU1 250011Z 23004KT 26/16 A2999 RMK A01 T02590158  RH  054%=      5-min Rain = 0
KJU1 250012Z 22005KT 26/16 A2999 RMK A01 T02590160  RH  054%=      5-min Rain = 0
KJU1 250013Z 22005KT 26/16 A2999 RMK A01 T02580158  RH  054%=      5-min Rain = 0
KJU1 250014Z 22006KT 26/16 A2999 RMK A01 T02580159  RH  054%=      5-min Rain = 0
KJU1 250015Z 23006KT 26/16 A2999 RMK A01 T02580159  RH  054%=      5-min Rain = 0
KJU1 250016Z 22005KT 26/16 A2999 RMK A01 T02570158  RH  054%=      5-min Rain = 0
KJU1 250017Z 23007KT 26/16 A2999 RMK A01 T02570159  RH  055%=      5-min Rain = 0
KJU1 250018Z 23006KT 26/16 A30 RMK A01 T02560159  RH  055%=      5-min Rain = 0
KJU1 250019Z 22006KT 26/16 A2999 RMK A01 T02560159  RH  055%=      5-min Rain = 0
KJU1 250020Z 22006KT 26/16 A30 RMK A01 T02560160  RH  055%=      5-min Rain = 0
KJU1 250021Z 22008KT 26/16 A30 RMK A01 T02550160  RH  056%=      5-min Rain = 0
KJU1 250022Z 22005KT 26/16 A30 RMK A01 T02550161  RH  056%=      5-min Rain = 0
KJU1 250023Z 23004KT 25/16 A30 RMK A01 T02540161  RH  056%=      5-min Rain = 0
KJU1 250024Z 23005KT 25/16 A30 RMK A01 T02540161  RH  056%=      5-min Rain = 0
KJU1 250025Z 22006KT 25/16 A30 RMK A01 T02540161  RH  056%=      5-min Rain = 0
KJU1 250026Z 22005KT 25/16 A30 RMK A01 T02540161  RH  056%=      5-min Rain = 0
KJU1 250027Z 22005KT 25/16 A30 RMK A01 T02540161  RH  057%=      5-min Rain = 0
KJU1 250028Z 22005KT 25/16 A30 RMK A01 T02530162  RH  057%=      5-min Rain = 0
KJU1 250029Z 22006KT 25/16 A30 RMK A01 T02520161  RH  057%=      5-min Rain = 0
KJU1 250030Z 23006KT 25/16 A30 RMK A01 T02520161  RH  057%=      5-min Rain = 0
KJU1 250031Z 21005KT 25/16 A30 RMK A01 T02510161  RH  057%=      5-min Rain = 0
KJU1 250032Z 22006KT 25/16 A30 RMK A01 T02510161  RH  057%=      5-min Rain = 0
KJU1 250033Z 22004KT 25/16 A30 RMK A01 T02500161  RH  058%=      5-min Rain = 0
KJU1 250034Z 22003KT 25/16 A30 RMK A01 T02490162  RH  058%=      5-min Rain = 0
KJU1 250035Z 22005KT 25/16 A30 RMK A01 T02480161  RH  059%=      5-min Rain = 0
KJU1 250036Z 21005KT 25/16 A30 RMK A01 T02480161  RH  059%=      5-min Rain = 0
KJU1 250037Z 22005KT 25/16 A30 RMK A01 T02480161  RH  059%=      5-min Rain = 0
KJU1 250038Z 22003KT 25/16 A30 RMK A01 T02480162  RH  059%=      5-min Rain = 0
KJU1 250039Z 23004KT 25/16 A30 RMK A01 T02470161  RH  059%=      5-min Rain = 0
KJU1 250040Z 22003KT 25/16 A30 RMK A01 T02460161  RH  059%=      5-min Rain = 0
KJU1 250041Z 22003KT 25/16 A30 RMK A01 T02450161  RH  059%=      5-min Rain = 0
KJU1 250042Z 21004KT 24/16 A30 RMK A01 T02440161  RH  060%=      5-min Rain = 0
KJU1 250043Z 20004KT 24/16 A30 RMK A01 T02430161  RH  060%=      5-min Rain = 0
KJU1 250044Z 20005KT 24/16 A30 RMK A01 T02420161  RH  061%=      5-min Rain = 0
KJU1 250045Z 20004KT 24/16 A30 RMK A01 T02400161  RH  061%=      5-min Rain = 0
KJU1 250046Z 21005KT 24/16 A30 RMK A01 T02400161  RH  061%=      5-min Rain = 0
KJU1 250047Z 20005KT 24/16 A30 RMK A01 T02400160  RH  061%=      5-min Rain = 0
KJU1 250048Z 20004KT 24/16 A30 RMK A01 T02400161  RH  061%=      5-min Rain = 0
KJU1 250049Z 19005KT 24/16 A30 RMK A01 T02400161  RH  061%=      5-min Rain = 0
KJU1 250050Z 19006KT 24/16 A30 RMK A01 T02390161  RH  061%=      5-min Rain = 0
KJU1 250051Z 20005KT 24/16 A30 RMK A01 T02390161  RH  061%=      5-min Rain = 0
KJU1 250052Z 20004KT 24/16 A30 RMK A01 T02390161  RH  062%=      5-min Rain = 0
KJU1 250053Z 20005KT 24/16 A30 RMK A01 T02380161  RH  062%=      5-min Rain = 0
KJU1 250054Z 20005KT 24/16 A30 RMK A01 T02370160  RH  062%=      5-min Rain = 0
KJU1 250055Z 19005KT 24/16 A30 RMK A01 T02370161  RH  062%=      5-min Rain = 0
KJU1 250056Z 19005KT 24/16 A30 RMK A01 T02370161  RH  062%=      5-min Rain = 0
KJU1 250057Z 20004KT 24/16 A30 RMK A01 T02360161  RH  063%=      5-min Rain = 0
KJU1 250058Z 20005KT 24/16 A30 RMK A01 T02350161  RH  063%=      5-min Rain = 0
KJU1 250059Z 20005KT 24/16 A30 RMK A01 T02350160  RH  063%=      5-min Rain = 0
KJU1 250100Z 20004KT 24/16 A30 RMK A01 T02350160  RH  063%=      5-min Rain = 0
KJU1 250101Z 19003KT 24/16 A30 RMK A01 T02350161  RH  063%=      5-min Rain = 0
KJU1 250102Z 18004KT 23/16 A30 RMK A01 T02340161  RH  063%=      5-min Rain = 0
KJU1 250103Z 17004KT 23/16 A30 RMK A01 T02330160  RH  063%=      5-min Rain = 0
KJU1 250104Z 18004KT 23/16 A30 RMK A01 T02330160  RH  063%=      5-min Rain = 0
KJU1 250105Z 17004KT 23/16 A30 RMK A01 T02320160  RH  064%=      5-min Rain = 0
KJU1 250106Z 18005KT 23/16 A30 RMK A01 T02310160  RH  064%=      5-min Rain = 0
KJU1 250107Z 19005KT 23/16 A30 RMK A01 T02300159  RH  064%=      5-min Rain = 0
KJU1 250108Z 18005KT 23/16 A30 RMK A01 T02300160  RH  065%=      5-min Rain = 0
KJU1 250109Z 18008KT 23/16 A30 RMK A01 T02290160  RH  065%=      5-min Rain = 0
KJU1 250110Z 18007KT 23/16 A30 RMK A01 T02290160  RH  065%=      5-min Rain = 0
KJU1 250111Z 18005KT 23/16 A30 RMK A01 T02290160  RH  065%=      5-min Rain = 0
KJU1 250112Z 17005KT 23/16 A30 RMK A01 T02290160  RH  065%=      5-min Rain = 0
KJU1 250113Z 17006KT 23/16 A3001 RMK A01 T02280160  RH  066%=      5-min Rain = 0
KJU1 250114Z 17007KT 23/16 A3001 RMK A01 T02270160  RH  066%=      5-min Rain = 0
KJU1 250115Z 18005KT 23/16 A3001 RMK A01 T02270160  RH  066%=      5-min Rain = 0
KJU1 250116Z 17006KT 23/16 A3001 RMK A01 T02270160  RH  066%=      5-min Rain = 0
KJU1 250117Z 17007KT 23/16 A3001 RMK A01 T02270160  RH  066%=      5-min Rain = 0
KJU1 250118Z 18006KT 23/16 A3001 RMK A01 T02270160  RH  066%=      5-min Rain = 0
KJU1 250119Z 17006KT 23/16 A3001 RMK A01 T02260160  RH  066%=      5-min Rain = 0
KJU1 250120Z 18006KT 23/16 A3001 RMK A01 T02260160  RH  066%=      5-min Rain = 0
KJU1 250121Z 18005KT 23/16 A3001 RMK A01 T02250160  RH  067%=      5-min Rain = 0
KJU1 250122Z 18007KT 22/16 A3001 RMK A01 T02240160  RH  067%=      5-min Rain = 0
KJU1 250123Z 17006KT 22/16 A3001 RMK A01 T02240160  RH  067%=      5-min Rain = 0
KJU1 250124Z 18006KT 22/16 A3001 RMK A01 T02240160  RH  067%=      5-min Rain = 0
KJU1 250125Z 18006KT 22/16 A3001 RMK A01 T02240159  RH  067%=      5-min Rain = 0
KJU1 250126Z 18007KT 22/16 A3002 RMK A01 T02240160  RH  067%=      5-min Rain = 0
KJU1 250127Z 18007KT 22/16 A3002 RMK A01 T02240160  RH  067%=      5-min Rain = 0
KJU1 250128Z 19008KT 22/16 A3002 RMK A01 T02240160  RH  067%=      5-min Rain = 0
KJU1 250129Z 18006KT 22/16 A3002 RMK A01 T02240160  RH  067%=      5-min Rain = 0
KJU1 250130Z 18008KT 22/16 A3002 RMK A01 T02240160  RH  067%=      5-min Rain = 0
KJU1 250131Z 18008KT 22/16 A3002 RMK A01 T02240160  RH  067%=      5-min Rain = 0
KJU1 250132Z 18007KT 22/16 A3002 RMK A01 T02240159  RH  067%=      5-min Rain = 0
KJU1 250133Z 18006KT 22/16 A3002 RMK A01 T02240160  RH  067%=      5-min Rain = 0
KJU1 250134Z 18005KT 22/16 A3002 RMK A01 T02230160  RH  067%=      5-min Rain = 0
KJU1 250135Z 18005KT 22/16 A3002 RMK A01 T02220159  RH  067%=      5-min Rain = 0
KJU1 250136Z 18006KT 22/16 A3002 RMK A01 T02220159  RH  068%=      5-min Rain = 0
KJU1 250137Z 19006KT 22/16 A3002 RMK A01 T02210159  RH  068%=      5-min Rain = 0
KJU1 250138Z 19006KT 22/16 A3003 RMK A01 T02200159  RH  068%=      5-min Rain = 0
KJU1 250139Z 19005KT 22/16 A3003 RMK A01 T02190159  RH  068%=      5-min Rain = 0
KJU1 250140Z 19005KT 22/16 A3003 RMK A01 T02190159  RH  069%=      5-min Rain = 0
KJU1 250141Z 19005KT 22/16 A3003 RMK A01 T02180159  RH  069%=      5-min Rain = 0
KJU1 250142Z 19005KT 22/16 A3003 RMK A01 T02180159  RH  069%=      5-min Rain = 0
KJU1 250143Z 19005KT 22/16 A3003 RMK A01 T02170158  RH  069%=      5-min Rain = 0
KJU1 250144Z 19004KT 22/16 A3003 RMK A01 T02180159  RH  069%=      5-min Rain = 0
KJU1 250145Z 19007KT 22/16 A3003 RMK A01 T02170158  RH  069%=      5-min Rain = 0
KJU1 250146Z 19006KT 22/16 A3003 RMK A01 T02170158  RH  069%=      5-min Rain = 0
KJU1 250147Z 19006KT 22/16 A3003 RMK A01 T02160158  RH  070%=      5-min Rain = 0
KJU1 250148Z 19007KT 22/16 A3003 RMK A01 T02160158  RH  069%=      5-min Rain = 0
KJU1 250149Z 18005KT 22/16 A3003 RMK A01 T02170158  RH  069%=      5-min Rain = 0
KJU1 250150Z 20006KT 22/16 A3003 RMK A01 T02170158  RH  069%=      5-min Rain = 0
KJU1 250151Z 19006KT 22/16 A3003 RMK A01 T02170158  RH  069%=      5-min Rain = 0
KJU1 250152Z 19005KT 22/16 A3003 RMK A01 T02170158  RH  069%=      5-min Rain = 0
KJU1 250153Z 19006KT 22/16 A3003 RMK A01 T02170158  RH  069%=      5-min Rain = 0
KJU1 250154Z 19005KT 22/16 A3003 RMK A01 T02170158  RH  069%=      5-min Rain = 0
KJU1 250155Z 19007KT 22/16 A3003 RMK A01 T02170158  RH  069%=      5-min Rain = 0
KJU1 250156Z 19007KT 22/16 A3004 RMK A01 T02170158  RH  069%=      5-min Rain = 0
KJU1 250157Z 19005KT 22/16 A3004 RMK A01 T02160158  RH  070%=      5-min Rain = 0
KJU1 250158Z 19006KT 22/16 A3004 RMK A01 T02160158  RH  070%=      5-min Rain = 0
KJU1 250159Z 20005KT 22/16 A3004 RMK A01 T02160158  RH  070%=      5-min Rain = 0
KJU1 250200Z 19004KT 22/16 A3004 RMK A01 T02150158  RH  070%=      5-min Rain = 0
KJU1 250201Z 20005KT 21/16 A3004 RMK A01 T02140158  RH  070%=      5-min Rain = 0
KJU1 250202Z 19005KT 21/16 A3004 RMK A01 T02140158  RH  070%=      5-min Rain = 0
KJU1 250203Z 19005KT 21/16 A3004 RMK A01 T02130158  RH  071%=      5-min Rain = 0
KJU1 250204Z 19005KT 21/16 A3004 RMK A01 T02120158  RH  071%=      5-min Rain = 0
KJU1 250205Z 19006KT 21/16 A3004 RMK A01 T02120158  RH  071%=      5-min Rain = 0
KJU1 250206Z 19006KT 21/16 A3004 RMK A01 T02110158  RH  072%=      5-min Rain = 0
KJU1 250207Z 19006KT 21/16 A3004 RMK A01 T02110158  RH  072%=      5-min Rain = 0
KJU1 250208Z 20006KT 21/16 A3004 RMK A01 T02120158  RH  072%=      5-min Rain = 0
KJU1 250209Z 18006KT 21/16 A3004 RMK A01 T02130158  RH  071%=      5-min Rain = 0
KJU1 250210Z 19006KT 21/16 A3004 RMK A01 T02130158  RH  071%=      5-min Rain = 0
KJU1 250211Z 19005KT 21/16 A3004 RMK A01 T02120159  RH  071%=      5-min Rain = 0
KJU1 250212Z 18005KT 21/16 A3004 RMK A01 T02120159  RH  072%=      5-min Rain = 0
KJU1 250213Z 19005KT 21/16 A3004 RMK A01 T02110159  RH  072%=      5-min Rain = 0
KJU1 250214Z 18005KT 21/16 A3005 RMK A01 T02090159  RH  073%=      5-min Rain = 0
KJU1 250215Z 18004KT 21/16 A3005 RMK A01 T02090159  RH  073%=      5-min Rain = 0
KJU1 250216Z 18005KT 21/16 A3005 RMK A01 T02090159  RH  073%=      5-min Rain = 0
KJU1 250217Z 19005KT 21/16 A3005 RMK A01 T02080159  RH  073%=      5-min Rain = 0
KJU1 250218Z 18006KT 21/16 A3005 RMK A01 T02080160  RH  074%=      5-min Rain = 0
KJU1 250219Z 18005KT 21/16 A3005 RMK A01 T02080159  RH  074%=      5-min Rain = 0
KJU1 250220Z 18006KT 21/16 A3005 RMK A01 T02080160  RH  074%=      5-min Rain = 0
KJU1 250221Z 18007KT 21/16 A3005 RMK A01 T02080160  RH  074%=      5-min Rain = 0
KJU1 250222Z 19006KT 21/16 A3005 RMK A01 T02080161  RH  074%=      5-min Rain = 0
KJU1 250223Z 18006KT 21/16 A3005 RMK A01 T02070161  RH  075%=      5-min Rain = 0
KJU1 250224Z 19006KT 21/16 A3005 RMK A01 T02060161  RH  075%=      5-min Rain = 0
KJU1 250225Z 19005KT 21/16 A3005 RMK A01 T02060161  RH  075%=      5-min Rain = 0
KJU1 250226Z 19005KT 21/16 A3005 RMK A01 T02060161  RH  075%=      5-min Rain = 0
KJU1 250227Z 19005KT 21/16 A3005 RMK A01 T02050161  RH  075%=      5-min Rain = 0
KJU1 250228Z 20006KT 21/16 A3005 RMK A01 T02060161  RH  075%=      5-min Rain = 0
KJU1 250229Z 19005KT 21/16 A3005 RMK A01 T02060161  RH  075%=      5-min Rain = 0
KJU1 250230Z 20004KT 21/16 A3005 RMK A01 T02060161  RH  075%=      5-min Rain = 0
KJU1 250231Z 19004KT 21/16 A3005 RMK A01 T02050160  RH  075%=      5-min Rain = 0
KJU1 250232Z 19005KT 21/16 A3006 RMK A01 T02050160  RH  075%=      5-min Rain = 0
KJU1 250233Z 19006KT 21/16 A3006 RMK A01 T02050160  RH  076%=      5-min Rain = 0
KJU1 250234Z 18006KT 21/16 A3006 RMK A01 T02050160  RH  075%=      5-min Rain = 0
KJU1 250235Z 19005KT 21/16 A3006 RMK A01 T02050160  RH  075%=      5-min Rain = 0
KJU1 250236Z 19006KT 21/16 A3006 RMK A01 T02050161  RH  076%=      5-min Rain = 0
KJU1 250237Z 18007KT 20/16 A3006 RMK A01 T02040160  RH  076%=      5-min Rain = 0
KJU1 250238Z 18007KT 20/16 A3006 RMK A01 T02040161  RH  076%=      5-min Rain = 0
KJU1 250239Z 19006KT 20/16 A3006 RMK A01 T02040161  RH  076%=      5-min Rain = 0
KJU1 250240Z 19006KT 20/16 A3006 RMK A01 T02040161  RH  076%=      5-min Rain = 0
KJU1 250241Z 18006KT 20/16 A3006 RMK A01 T02040161  RH  076%=      5-min Rain = 0
KJU1 250242Z 18006KT 20/16 A3006 RMK A01 T02040161  RH  076%=      5-min Rain = 0
KJU1 250243Z 19007KT 20/16 A3006 RMK A01 T02040161  RH  076%=      5-min Rain = 0
KJU1 250244Z 19007KT 20/16 A3006 RMK A01 T02040161  RH  076%=      5-min Rain = 0
KJU1 250245Z 19008KT 20/16 A3006 RMK A01 T02040161  RH  076%=      5-min Rain = 0
KJU1 250246Z 18006KT 20/16 A3006 RMK A01 T02040161  RH  076%=      5-min Rain = 0
KJU1 250247Z 19006KT 20/16 A3006 RMK A01 T02040161  RH  077%=      5-min Rain = 0
KJU1 250248Z 19006KT 20/16 A3006 RMK A01 T02030161  RH  077%=      5-min Rain = 0
KJU1 250249Z 19007KT 20/16 A3006 RMK A01 T02030161  RH  077%=      5-min Rain = 0
KJU1 250250Z 20006KT 20/16 A3006 RMK A01 T02030161  RH  077%=      5-min Rain = 0
KJU1 250251Z 19008KT 20/16 A3006 RMK A01 T02030161  RH  077%=      5-min Rain = 0
KJU1 250252Z 19007KT 20/16 A3006 RMK A01 T02020161  RH  077%=      5-min Rain = 0
KJU1 250253Z 19008KT 20/16 A3006 RMK A01 T02030161  RH  077%=      5-min Rain = 0
KJU1 250254Z 19008KT 20/16 A3006 RMK A01 T02040161  RH  077%=      5-min Rain = 0
KJU1 250255Z 19006KT 20/16 A3006 RMK A01 T02030161  RH  077%=      5-min Rain = 0
KJU1 250256Z 19006KT 20/16 A3006 RMK A01 T02030161  RH  077%=      5-min Rain = 0
KJU1 250257Z 19005KT 20/16 A3007 RMK A01 T02030161  RH  077%=      5-min Rain = 0
KJU1 250258Z 20006KT 20/16 A3007 RMK A01 T02020161  RH  077%=      5-min Rain = 0
KJU1 250259Z 20005KT 20/16 A3007 RMK A01 T02010161  RH  077%=      5-min Rain = 0
KJU1 250300Z 19007KT 20/16 A3007 RMK A01 T02000161  RH  078%=      5-min Rain = 0
KJU1 250301Z 20007KT 20/16 A3007 RMK A01 T02000161  RH  078%=      5-min Rain = 0
KJU1 250302Z 20007KT 20/16 A3007 RMK A01 T02000161  RH  078%=      5-min Rain = 0
KJU1 250303Z 20006KT 20/16 A3007 RMK A01 T02000161  RH  078%=      5-min Rain = 0
KJU1 250304Z 20007KT 20/16 A3007 RMK A01 T02000161  RH  078%=      5-min Rain = 0
KJU1 250305Z 20005KT 20/16 A3007 RMK A01 T02010161  RH  078%=      5-min Rain = 0
KJU1 250306Z 18006KT 20/16 A3007 RMK A01 T02010161  RH  078%=      5-min Rain = 0
KJU1 250307Z 20006KT 20/16 A3007 RMK A01 T02000161  RH  078%=      5-min Rain = 0
KJU1 250308Z 19006KT 20/16 A3007 RMK A01 T02000161  RH  078%=      5-min Rain = 0
KJU1 250309Z 20006KT 20/16 A3007 RMK A01 T01990161  RH  078%=      5-min Rain = 0
KJU1 250310Z 19005KT 20/16 A3007 RMK A01 T01990161  RH  078%=      5-min Rain = 0
KJU1 250311Z 19006KT 20/16 A3007 RMK A01 T01990161  RH  079%=      5-min Rain = 0
KJU1 250312Z 19004KT 20/16 A3007 RMK A01 T01980161  RH  079%=      5-min Rain = 0
KJU1 250313Z 19004KT 20/16 A3007 RMK A01 T01970161  RH  079%=      5-min Rain = 0
KJU1 250314Z 20004KT 20/16 A3007 RMK A01 T01970160  RH  079%=      5-min Rain = 0
KJU1 250315Z 19005KT 20/16 A3007 RMK A01 T01960160  RH  080%=      5-min Rain = 0
KJU1 250316Z 19005KT 20/16 A3007 RMK A01 T01960160  RH  080%=      5-min Rain = 0
KJU1 250317Z 19005KT 20/16 A3007 RMK A01 T01960160  RH  080%=      5-min Rain = 0
KJU1 250318Z 19006KT 20/16 A3007 RMK A01 T01960160  RH  080%=      5-min Rain = 0
KJU1 250319Z 20005KT 20/16 A3007 RMK A01 T01970161  RH  080%=      5-min Rain = 0
KJU1 250320Z 21005KT 20/16 A3007 RMK A01 T01970161  RH  080%=      5-min Rain = 0
KJU1 250321Z 21004KT 20/16 A3007 RMK A01 T01970161  RH  079%=      5-min Rain = 0
KJU1 250322Z 20005KT 20/16 A3007 RMK A01 T01970160  RH  079%=      5-min Rain = 0
KJU1 250323Z 20005KT 20/16 A3007 RMK A01 T01970161  RH  080%=      5-min Rain = 0
KJU1 250324Z 20004KT 20/16 A3008 RMK A01 T01970161  RH  080%=      5-min Rain = 0
KJU1 250325Z 20004KT 20/16 A3008 RMK A01 T01970160  RH  079%=      5-min Rain = 0
KJU1 250326Z 21005KT 20/16 A3008 RMK A01 T01960160  RH  080%=      5-min Rain = 0
KJU1 250327Z 20004KT 20/16 A3008 RMK A01 T01950159  RH  080%=      5-min Rain = 0
KJU1 250328Z 21004KT 20/16 A3008 RMK A01 T01950159  RH  080%=      5-min Rain = 0
KJU1 250329Z 20005KT 19/16 A3008 RMK A01 T01940160  RH  081%=      5-min Rain = 0
KJU1 250330Z 20004KT 19/16 A3008 RMK A01 T01940159  RH  080%=      5-min Rain = 0
KJU1 250331Z 21004KT 19/16 A3008 RMK A01 T01940159  RH  080%=      5-min Rain = 0
KJU1 250332Z 21003KT 19/16 A3008 RMK A01 T01940159  RH  080%=      5-min Rain = 0
KJU1 250333Z 21003KT 19/16 A3008 RMK A01 T01940159  RH  080%=      5-min Rain = 0
KJU1 250334Z 21003KT 19/16 A3008 RMK A01 T01930159  RH  080%=      5-min Rain = 0
KJU1 250335Z 21003KT 19/16 A3008 RMK A01 T01930159  RH  081%=      5-min Rain = 0
KJU1 250336Z 21003KT 19/16 A3008 RMK A01 T01920159  RH  081%=      5-min Rain = 0
KJU1 250337Z 21004KT 19/16 A3008 RMK A01 T01920159  RH  081%=      5-min Rain = 0
KJU1 250338Z 21004KT 19/16 A3008 RMK A01 T01920158  RH  081%=      5-min Rain = 0
KJU1 250339Z 21004KT 19/16 A3008 RMK A01 T01910158  RH  081%=      5-min Rain = 0
KJU1 250340Z 21004KT 19/16 A3008 RMK A01 T01910158  RH  081%=      5-min Rain = 0
KJU1 250341Z 21004KT 19/16 A3008 RMK A01 T01910158  RH  081%=      5-min Rain = 0
KJU1 250342Z 21004KT 19/16 A3008 RMK A01 T01900158  RH  082%=      5-min Rain = 0
KJU1 250343Z 21004KT 19/16 A3008 RMK A01 T01890157  RH  082%=      5-min Rain = 0
KJU1 250344Z 21004KT 19/16 A3008 RMK A01 T01880157  RH  082%=      5-min Rain = 0
KJU1 250345Z 21004KT 19/16 A3008 RMK A01 T01870156  RH  082%=      5-min Rain = 0
KJU1 250346Z 21004KT 19/16 A3008 RMK A01 T01870157  RH  083%=      5-min Rain = 0
KJU1 250347Z 21004KT 19/16 A3008 RMK A01 T01860156  RH  083%=      5-min Rain = 0
KJU1 250348Z 21004KT 19/16 A3008 RMK A01 T01850155  RH  083%=      5-min Rain = 0
KJU1 250349Z 21004KT 18/16 A3008 RMK A01 T01840156  RH  083%=      5-min Rain = 0
KJU1 250350Z 21004KT 18/16 A3008 RMK A01 T01840156  RH  084%=      5-min Rain = 0
KJU1 250351Z 21004KT 18/16 A3008 RMK A01 T01840156  RH  084%=      5-min Rain = 0
KJU1 250352Z 20004KT 18/16 A3008 RMK A01 T01830155  RH  084%=      5-min Rain = 0
KJU1 250353Z 20004KT 18/16 A3008 RMK A01 T01830155  RH  084%=      5-min Rain = 0
KJU1 250354Z 19004KT 18/16 A3008 RMK A01 T01830156  RH  084%=      5-min Rain = 0
KJU1 250355Z 20004KT 18/16 A3008 RMK A01 T01820156  RH  085%=      5-min Rain = 0
KJU1 250356Z 20005KT 18/16 A3008 RMK A01 T01810155  RH  084%=      5-min Rain = 0
KJU1 250357Z 19004KT 18/16 A3008 RMK A01 T01810155  RH  085%=      5-min Rain = 0
KJU1 250358Z 19004KT 18/16 A3008 RMK A01 T01810156  RH  085%=      5-min Rain = 0
KJU1 250359Z 19004KT 18/16 A3008 RMK A01 T01810156  RH  085%=      5-min Rain = 0
KJU1 250400Z 19004KT 18/16 A3008 RMK A01 T01810156  RH  086%=      5-min Rain = 0
KJU1 250401Z 19004KT 18/16 A3009 RMK A01 T01800156  RH  086%=      5-min Rain = 0
KJU1 250402Z 20003KT 18/16 A3009 RMK A01 T01800156  RH  086%=      5-min Rain = 0
KJU1 250403Z 20003KT 18/16 A3009 RMK A01 T01800155  RH  086%=      5-min Rain = 0
KJU1 250404Z 20003KT 18/16 A3009 RMK A01 T01800156  RH  086%=      5-min Rain = 0
KJU1 250405Z 20003KT 18/16 A3009 RMK A01 T01800157  RH  086%=      5-min Rain = 0
KJU1 250406Z 20003KT 18/16 A3009 RMK A01 T01800156  RH  086%=      5-min Rain = 0
KJU1 250407Z 20003KT 18/16 A3009 RMK A01 T01800156  RH  086%=      5-min Rain = 0
KJU1 250408Z 20003KT 18/16 A3009 RMK A01 T01800156  RH  086%=      5-min Rain = 0
KJU1 250409Z 19004KT 18/15 A3009 RMK A01 T01790154  RH  085%=      5-min Rain = 0
KJU1 250410Z 19004KT 18/16 A3009 RMK A01 T01790155  RH  086%=      5-min Rain = 0
KJU1 250411Z 19004KT 18/16 A3009 RMK A01 T01780155  RH  086%=      5-min Rain = 0
KJU1 250412Z 19005KT 18/15 A3009 RMK A01 T01780154  RH  086%=      5-min Rain = 0
KJU1 250413Z 19005KT 18/15 A3009 RMK A01 T01760153  RH  086%=      5-min Rain = 0
KJU1 250414Z 19005KT 18/15 A3008 RMK A01 T01760154  RH  087%=      5-min Rain = 0
KJU1 250415Z 18004KT 18/15 A3008 RMK A01 T01760154  RH  087%=      5-min Rain = 0
KJU1 250416Z 19004KT 18/15 A3009 RMK A01 T01760153  RH  087%=      5-min Rain = 0
KJU1 250417Z 19004KT 18/15 A3009 RMK A01 T01750153  RH  087%=      5-min Rain = 0
KJU1 250418Z 19004KT 18/15 A3009 RMK A01 T01750153  RH  087%=      5-min Rain = 0
KJU1 250419Z 20004KT 17/15 A3009 RMK A01 T01740153  RH  087%=      5-min Rain = 0
KJU1 250420Z 19004KT 18/15 A3009 RMK A01 T01750154  RH  088%=      5-min Rain = 0
KJU1 250421Z 19004KT 17/15 A3009 RMK A01 T01740153  RH  088%=      5-min Rain = 0
KJU1 250422Z 19003KT 17/15 A3009 RMK A01 T01740153  RH  088%=      5-min Rain = 0
KJU1 250423Z 19003KT 17/15 A3009 RMK A01 T01740154  RH  088%=      5-min Rain = 0
KJU1 250424Z 19003KT 17/15 A3009 RMK A01 T01740154  RH  088%=      5-min Rain = 0
KJU1 250425Z 19003KT 17/16 A3009 RMK A01 T01740155  RH  088%=      5-min Rain = 0
KJU1 250426Z 19003KT 17/16 A3009 RMK A01 T01740155  RH  088%=      5-min Rain = 0
KJU1 250427Z 19003KT 17/16 A3009 RMK A01 T01740155  RH  088%=      5-min Rain = 0
KJU1 250428Z 19003KT 17/15 A3009 RMK A01 T01740154  RH  088%=      5-min Rain = 0
KJU1 250429Z 19003KT 17/15 A3009 RMK A01 T01730153  RH  088%=      5-min Rain = 0
KJU1 250430Z 19003KT 17/15 A3009 RMK A01 T01720151  RH  088%=      5-min Rain = 0
KJU1 250431Z 19003KT 17/15 A3009 RMK A01 T01710152  RH  089%=      5-min Rain = 0
KJU1 250432Z 19003KT 17/15 A3009 RMK A01 T01710153  RH  089%=      5-min Rain = 0
KJU1 250433Z 19003KT 17/15 A3009 RMK A01 T01710154  RH  090%=      5-min Rain = 0
KJU1 250434Z 19003KT 17/15 A3009 RMK A01 T01710153  RH  089%=      5-min Rain = 0
KJU1 250435Z 18003KT 17/15 A3008 RMK A01 T01700152  RH  089%=      5-min Rain = 0
KJU1 250436Z 18004KT 17/15 A3008 RMK A01 T01690151  RH  089%=      5-min Rain = 0
KJU1 250437Z 18004KT 17/15 A3008 RMK A01 T01690152  RH  090%=      5-min Rain = 0
KJU1 250438Z 18004KT 17/15 A3008 RMK A01 T01690153  RH  090%=      5-min Rain = 0
KJU1 250439Z 18004KT 17/15 A3008 RMK A01 T01700154  RH  091%=      5-min Rain = 0
KJU1 250440Z 18004KT 17/15 A3008 RMK A01 T01700154  RH  090%=      5-min Rain = 0
KJU1 250441Z 18004KT 17/15 A3008 RMK A01 T01710154  RH  090%=      5-min Rain = 0
KJU1 250442Z 18004KT 17/15 A3009 RMK A01 T01710154  RH  089%=      5-min Rain = 0
KJU1 250443Z 18004KT 17/15 A3008 RMK A01 T01710154  RH  089%=      5-min Rain = 0
KJU1 250444Z 18004KT 17/16 A3008 RMK A01 T01710155  RH  090%=      5-min Rain = 0
KJU1 250445Z 18004KT 17/15 A3008 RMK A01 T01720154  RH  089%=      5-min Rain = 0
KJU1 250446Z 18005KT 17/15 A3008 RMK A01 T01720154  RH  089%=      5-min Rain = 0
KJU1 250447Z 18005KT 17/15 A3008 RMK A01 T01720154  RH  089%=      5-min Rain = 0
KJU1 250448Z 18005KT 17/15 A3008 RMK A01 T01720153  RH  089%=      5-min Rain = 0
KJU1 250449Z 18005KT 17/15 A3008 RMK A01 T01710153  RH  089%=      5-min Rain = 0
KJU1 250450Z 18005KT 17/15 A3008 RMK A01 T01710152  RH  089%=      5-min Rain = 0
KJU1 250451Z 19005KT 17/15 A3008 RMK A01 T01710153  RH  089%=      5-min Rain = 0
KJU1 250452Z 19005KT 17/15 A3008 RMK A01 T01700152  RH  089%=      5-min Rain = 0
KJU1 250453Z 19005KT 17/15 A3008 RMK A01 T01690151  RH  089%=      5-min Rain = 0
KJU1 250454Z 19005KT 17/15 A3008 RMK A01 T01690151  RH  089%=      5-min Rain = 0
KJU1 250455Z 19005KT 17/15 A3008 RMK A01 T01680152  RH  090%=      5-min Rain = 0
KJU1 250456Z 19004KT 17/15 A3008 RMK A01 T01680151  RH  090%=      5-min Rain = 0
KJU1 250457Z 19004KT 17/15 A3008 RMK A01 T01680151  RH  090%=      5-min Rain = 0
KJU1 250458Z 19004KT 17/15 A3008 RMK A01 T01680152  RH  090%=      5-min Rain = 0
KJU1 250459Z 19004KT 17/15 A3008 RMK A01 T01680152  RH  090%=      5-min Rain = 0

Page generated in 0.1471 seconds.